M I D A S
Marine Information and Data Acquisition System
Tripno 2329 of the Zeeleeuw from 2012-06-14 04:46:31 to 2012-06-14 15:55:33
Back to CruiseResearch ActivitiesStationsMapUnderway DataData graphs

EquipmentUnitsComment
TimeDGPSUTC
LatitudeDGPSDM.mWGS84
LongitudeDGPSDM.mWGS84
TemperatureSBE03/SBE38deg celciusITS90
ConductivitySBE21S/mITS90
SalinitySBE21 Practical Salinity Units
ChlorophylAChelsea fluorimeterg/lCalibrated in Aceton
Missing or incorrect values are displayed as -999
Sea surface data collected by the RV Zeeleeuw from 2012-06-14 04:23:01 to 2012-06-14 16:21:26
                                                                                    Next 1000 lines
Time Latitude Longitude Temperature Conductivity Salinity ChlorophylA
2012-06-14 04:23:12 51°13.635 2°56.014 20.4061 0.056487 0.312001 -2.458615
2012-06-14 04:23:17 51°13.635 2°56.014 20.4058 0.056487 0.312007 -2.458615
2012-06-14 04:23:21 51°13.635 2°56.014 20.4054 0.05659 0.312591 -2.458615
2012-06-14 04:23:25 51°13.635 2°56.014 20.405 0.056487 0.312007 -2.458615
2012-06-14 04:23:31 51°13.635 2°56.014 20.4044 0.056487 0.312018 -2.458615
2012-06-14 04:23:36 51°13.635 2°56.014 20.4045 0.056487 0.312023 -2.458615
2012-06-14 04:23:42 51°13.635 2°56.014 20.4041 0.056487 0.312023 -2.458615
2012-06-14 04:23:45 51°13.635 2°56.014 20.4041 0.056487 0.312029 -2.458615
2012-06-14 04:23:52 51°13.635 2°56.014 20.4043 0.056487 0.312035 -2.458615
2012-06-14 04:23:57 51°13.635 2°56.013 20.4037 0.056487 0.31204 -2.458615
2012-06-14 04:24:01 51°13.635 2°56.013 20.4036 0.056487 0.31204 -2.458615
2012-06-14 04:24:05 51°13.635 2°56.013 20.4029 0.056487 0.312046 -2.458615
2012-06-14 04:24:12 51°13.635 2°56.013 20.4033 0.056487 0.312046 -2.458615
2012-06-14 04:24:17 51°13.635 2°56.013 20.4037 0.056487 0.312051 -2.458615
2012-06-14 04:24:21 51°13.635 2°56.013 20.4029 0.056487 0.312051 -2.458615
2012-06-14 04:24:26 51°13.635 2°56.013 20.4023 0.056487 0.312057 -2.458615
2012-06-14 04:24:31 51°13.635 2°56.013 20.4023 0.056487 0.312057 -2.458615
2012-06-14 04:24:37 51°13.635 2°56.013 20.4024 0.056487 0.312063 -2.458615
2012-06-14 04:24:42 51°13.635 2°56.013 20.4016 0.056487 0.312063 -2.458615
2012-06-14 04:24:46 51°13.634 2°56.013 20.4002 0.056487 0.312068 -2.458615
2012-06-14 04:24:51 51°13.633 2°56.013 20.4004 0.056487 0.312074 -2.458615
2012-06-14 04:24:56 51°13.633 2°56.013 20.4011 0.056487 0.312079 -2.458615
2012-06-14 04:25:01 51°13.633 2°56.013 20.401 0.056487 0.312079 -2.458615
2012-06-14 04:25:06 51°13.633 2°56.012 20.4012 0.056487 0.312085 -2.458615
2012-06-14 04:25:10 51°13.633 2°56.012 20.4009 0.056487 0.312085 -2.458615
2012-06-14 04:25:16 51°13.633 2°56.013 20.4019 0.056487 0.312085 -2.458615
2012-06-14 04:25:21 51°13.633 2°56.013 20.4012 0.056487 0.312085 -2.458615
2012-06-14 04:25:26 51°13.632 2°56.012 20.4011 0.056487 0.312091 -2.458615
2012-06-14 04:25:30 51°13.632 2°56.012 20.3994 0.056487 0.312091 -2.458615
2012-06-14 04:25:35 51°13.632 2°56.012 20.4003 0.056487 0.312096 -2.458615
2012-06-14 04:25:40 51°13.632 2°56.012 20.4 0.056487 0.312096 -2.458615
2012-06-14 04:25:45 51°13.632 2°56.012 20.4001 0.056487 0.312102 -2.458615
2012-06-14 04:25:50 51°13.632 2°56.012 20.3999 0.056487 0.312107 -2.458615
2012-06-14 04:25:55 51°13.633 2°56.013 20.398 0.056487 0.312113 -2.458615
2012-06-14 04:26:01 51°13.633 2°56.012 20.3981 0.056487 0.312119 -2.458615
2012-06-14 04:26:06 51°13.633 2°56.013 20.3964 0.056487 0.31213 -2.458615
2012-06-14 04:26:11 51°13.633 2°56.013 20.3965 0.056487 0.31213 -2.458615
2012-06-14 04:26:16 51°13.634 2°56.013 20.3963 0.056487 0.312135 -2.458615
2012-06-14 04:26:22 51°13.634 2°56.013 20.3962 0.056487 0.312141 -2.458615
2012-06-14 04:26:27 51°13.635 2°56.013 20.3955 0.056487 0.312147 -2.458615
2012-06-14 04:26:31 51°13.635 2°56.013 20.3957 0.056487 0.312152 -2.458615
2012-06-14 04:26:36 51°13.635 2°56.013 20.3962 0.056487 0.312152 -2.458615
2012-06-14 04:26:41 51°13.635 2°56.013 20.3957 0.056487 0.312152 -2.458615
2012-06-14 04:26:46 51°13.635 2°56.014 20.3948 0.056487 0.312152 -2.458615
2012-06-14 04:26:51 51°13.635 2°56.013 20.3949 0.056487 0.312158 -2.458615
2012-06-14 04:26:56 51°13.636 2°56.013 20.394 0.056487 0.312158 -2.458615
2012-06-14 04:27:01 51°13.636 2°56.014 20.3941 0.056487 0.312158 -2.458615
2012-06-14 04:27:06 51°13.636 2°56.014 20.3931 0.056487 0.312163 -2.458615
2012-06-14 04:27:11 51°13.636 2°56.014 20.3932 0.056487 0.312163 -2.458615
2012-06-14 04:27:16 51°13.635 2°56.013 20.3927 0.056487 0.312169 -2.458615
2012-06-14 04:27:21 51°13.635 2°56.014 20.3925 0.056487 0.312175 -2.458615
2012-06-14 04:27:27 51°13.635 2°56.014 20.3918 0.056487 0.31218 -2.458615
2012-06-14 04:27:32 51°13.633 2°56.013 20.3919 0.056487 0.312186 -2.458615
2012-06-14 04:27:36 51°13.632 2°56.013 20.3912 0.056487 0.312191 -2.458615
2012-06-14 04:27:41 51°13.632 2°56.013 20.3902 0.056487 0.312191 -2.458615
2012-06-14 04:27:46 51°13.633 2°56.013 20.3914 0.056487 0.312191 -2.458615
2012-06-14 04:27:51 51°13.633 2°56.013 20.3927 0.056487 0.312197 -2.458615
2012-06-14 04:27:56 51°13.632 2°56.013 20.3921 0.056487 0.312203 -2.458615
2012-06-14 04:28:02 51°13.632 2°56.013 20.3916 0.056487 0.312208 -2.458615
2012-06-14 04:28:07 51°13.632 2°56.012 20.392 0.056487 0.312214 -2.458615
2012-06-14 04:28:11 51°13.632 2°56.012 20.3929 0.056487 0.312214 -2.458615
2012-06-14 04:28:17 51°13.632 2°56.012 20.3927 0.056487 0.312214 -2.458615
2012-06-14 04:28:21 51°13.632 2°56.012 20.3923 0.056487 0.312219 -2.458615
2012-06-14 04:28:27 51°13.632 2°56.012 20.392 0.056487 0.312225 -2.458615
2012-06-14 04:28:32 51°13.632 2°56.012 20.3917 0.056487 0.312225 -2.458615
2012-06-14 04:28:36 51°13.632 2°56.012 20.3916 0.056487 0.312231 -2.458615
2012-06-14 04:28:41 51°13.632 2°56.012 20.3913 0.056487 0.312231 -2.458615
2012-06-14 04:28:46 51°13.633 2°56.013 20.3916 0.056487 0.312236 -2.458615
2012-06-14 04:28:51 51°13.633 2°56.012 20.3907 0.056487 0.312236 -2.458615
2012-06-14 04:28:56 51°13.633 2°56.012 20.3897 0.056487 0.312242 -2.458615
2012-06-14 04:29:01 51°13.633 2°56.012 20.3912 0.056487 0.312242 -2.458615
2012-06-14 04:29:05 51°13.633 2°56.012 20.3912 0.056487 0.312247 -2.458615
2012-06-14 04:29:11 51°13.633 2°56.012 20.3907 0.056487 0.312247 -2.458615
2012-06-14 04:29:17 51°13.633 2°56.012 20.3911 0.056487 0.312253 -2.458615
2012-06-14 04:29:22 51°13.633 2°56.012 20.3916 0.056487 0.312253 -2.458615
2012-06-14 04:29:26 51°13.633 2°56.012 20.3913 0.056487 0.312259 -2.458615
2012-06-14 04:29:31 51°13.634 2°56.012 20.3909 0.056487 0.312264 -2.458615
2012-06-14 04:29:37 51°13.634 2°56.012 20.3907 0.056487 0.31227 -2.458615
2012-06-14 04:29:40 51°13.634 2°56.012 20.3925 0.056487 0.31227 -2.458615
2012-06-14 04:29:46 51°13.634 2°56.012 20.3955 0.056487 0.312275 -2.458615
2012-06-14 04:29:51 51°13.634 2°56.012 20.3968 0.056487 0.312275 -2.458615
2012-06-14 04:29:56 51°13.634 2°56.012 20.3964 0.056487 0.312281 -2.458615
2012-06-14 04:30:01 51°13.634 2°56.012 20.396 0.056487 0.312287 -2.458615
2012-06-14 04:30:06 51°13.634 2°56.012 20.3954 0.056487 0.312292 -2.458615
2012-06-14 04:30:10 51°13.634 2°56.012 20.3947 0.056487 0.312292 -2.458615
2012-06-14 04:30:16 51°13.634 2°56.012 20.3937 0.056487 0.312292 -2.458615
2012-06-14 04:30:22 51°13.634 2°56.012 20.393 0.056487 0.312298 -2.458615
2012-06-14 04:30:27 51°13.634 2°56.013 20.3929 0.056487 0.312303 -2.458615
2012-06-14 04:30:31 51°13.634 2°56.013 20.3923 0.056487 0.312303 -2.458615
2012-06-14 04:30:36 51°13.634 2°56.012 20.3923 0.056487 0.312309 -2.458615
2012-06-14 04:30:42 51°13.634 2°56.011 20.3924 0.056487 0.312309 -2.458615
2012-06-14 04:30:46 51°13.634 2°56.012 20.3915 0.056487 0.312315 -2.458615
2012-06-14 04:30:51 51°13.634 2°56.012 20.3914 0.056487 0.312315 -2.458615
2012-06-14 04:30:56 51°13.634 2°56.012 20.3917 0.056487 0.312326 -2.458615
2012-06-14 04:31:01 51°13.634 2°56.013 20.392 0.056487 0.312326 -2.458615
2012-06-14 04:31:06 51°13.633 2°56.013 20.3916 0.056487 0.312331 -2.458615
2012-06-14 04:31:11 51°13.634 2°56.012 20.3914 0.056487 0.312331 -2.458615
2012-06-14 04:31:16 51°13.634 2°56.012 20.3907 0.056487 0.312331 -2.458615
2012-06-14 04:31:20 51°13.633 2°56.011 20.3918 0.056487 0.312337 -2.458615
2012-06-14 04:31:26 51°13.634 2°56.011 20.3914 0.056487 0.312343 -2.458615
2012-06-14 04:31:32 51°13.634 2°56.011 20.3914 0.056487 0.312348 -2.458615
2012-06-14 04:31:37 51°13.634 2°56.011 20.3925 0.056487 0.312348 -2.458615
2012-06-14 04:31:41 51°13.633 2°56.011 20.3923 0.056487 0.312348 -2.458615
2012-06-14 04:31:46 51°13.634 2°56.011 20.3924 0.056487 0.312354 -2.458615
2012-06-14 04:31:51 51°13.634 2°56.011 20.3921 0.056487 0.312359 -2.458615
2012-06-14 04:31:56 51°13.634 2°56.011 20.3916 0.056487 0.312365 -2.458615
2012-06-14 04:32:01 51°13.634 2°56.011 20.3906 0.056487 0.312365 -2.458615
2012-06-14 04:32:06 51°13.634 2°56.011 20.3906 0.056487 0.312371 -2.458615
2012-06-14 04:32:12 51°13.634 2°56.012 20.3904 0.056487 0.312371 -2.458615
2012-06-14 04:32:17 51°13.634 2°56.012 20.3897 0.056385 0.311791 -2.458615
2012-06-14 04:32:22 51°13.634 2°56.013 20.3891 0.056487 0.312376 -2.458615
2012-06-14 04:32:26 51°13.635 2°56.013 20.3889 0.056487 0.312387 -2.458615
2012-06-14 04:32:31 51°13.635 2°56.013 20.3903 0.056385 0.311803 -2.458615
2012-06-14 04:32:36 51°13.634 2°56.013 20.3933 0.056487 0.312393 -2.458615
2012-06-14 04:32:41 51°13.635 2°56.013 20.3947 0.056487 0.312393 -2.458615
2012-06-14 04:32:46 51°13.635 2°56.013 20.3945 0.056487 0.312399 -2.458615
2012-06-14 04:32:50 51°13.635 2°56.013 20.3922 0.056487 0.312404 -2.458615
2012-06-14 04:32:56 51°13.634 2°56.013 20.3902 0.056487 0.312404 -2.458615
2012-06-14 04:33:01 51°13.634 2°56.014 20.3911 0.056385 0.311825 -2.458615
2012-06-14 04:33:06 51°13.634 2°56.014 20.3962 0.056385 0.311831 -2.458615
2012-06-14 04:33:10 51°13.634 2°56.014 20.3925 0.056385 0.311831 -2.458615
2012-06-14 04:33:17 51°13.635 2°56.014 20.3911 0.056487 0.312415 -2.458615
2012-06-14 04:33:21 51°13.635 2°56.014 20.382 0.056385 0.311836 -2.458615
2012-06-14 04:33:26 51°13.634 2°56.014 20.3896 0.056487 0.312427 -2.458615
2012-06-14 04:33:31 51°13.634 2°56.014 20.3866 0.056385 0.311842 -2.458615
2012-06-14 04:33:36 51°13.635 2°56.014 20.3853 0.056487 0.312432 -2.458615
2012-06-14 04:33:41 51°13.635 2°56.014 20.3846 0.056487 0.312432 -2.458615
2012-06-14 04:33:46 51°13.635 2°56.014 20.3837 0.056385 0.311859 -2.458615
2012-06-14 04:33:51 51°13.634 2°56.014 20.3846 0.056385 0.311859 -2.458615
2012-06-14 04:33:56 51°13.634 2°56.014 20.3882 0.056385 0.311864 -2.458615
2012-06-14 04:34:01 51°13.634 2°56.014 20.3882 0.056385 0.31187 -2.458615
2012-06-14 04:34:06 51°13.634 2°56.014 20.3897 0.056385 0.31187 -2.458615
2012-06-14 04:34:11 51°13.634 2°56.014 20.3895 0.056385 0.31187 -2.458615
2012-06-14 04:34:15 51°13.634 2°56.014 20.3885 0.056385 0.311875 -2.458615
2012-06-14 04:34:21 51°13.634 2°56.014 20.3892 0.056385 0.311875 -2.458615
2012-06-14 04:34:26 51°13.634 2°56.014 20.3876 0.056385 0.311881 -2.458615
2012-06-14 04:34:31 51°13.634 2°56.014 20.3871 0.056385 0.311887 -2.458615
2012-06-14 04:34:36 51°13.634 2°56.015 20.3831 0.056385 0.311892 -2.458615
2012-06-14 04:34:41 51°13.634 2°56.015 20.3798 0.056385 0.311892 -2.458615
2012-06-14 04:34:46 51°13.633 2°56.014 20.3792 0.056385 0.311898 -2.458615
2012-06-14 04:34:51 51°13.632 2°56.014 20.3794 0.056385 0.311903 -2.458615
2012-06-14 04:34:56 51°13.631 2°56.013 20.3845 0.056385 0.311903 -2.458615
2012-06-14 04:35:01 51°13.631 2°56.013 20.3889 0.056385 0.311903 -2.458615
2012-06-14 04:35:06 51°13.631 2°56.013 20.3852 0.056385 0.311903 -2.458615
2012-06-14 04:35:11 51°13.631 2°56.013 20.3768 0.056385 0.311903 -2.458615
2012-06-14 04:35:16 51°13.631 2°56.013 20.3758 0.056385 0.311898 -2.458615
2012-06-14 04:35:20 51°13.631 2°56.013 20.3736 0.056385 0.311892 -2.458615
2012-06-14 04:35:25 51°13.631 2°56.013 20.3754 0.056385 0.311892 -2.458615
2012-06-14 04:35:31 51°13.631 2°56.013 20.3766 0.056385 0.311892 -2.458615
2012-06-14 04:35:36 51°13.631 2°56.013 20.3773 0.056385 0.311898 -2.458615
2012-06-14 04:35:41 51°13.631 2°56.013 20.3798 0.056385 0.311898 -2.458615
2012-06-14 04:35:46 51°13.631 2°56.013 20.3814 0.056385 0.311909 -2.458615
2012-06-14 04:35:52 51°13.631 2°56.013 20.3838 0.056385 0.311926 -2.458615
2012-06-14 04:35:57 51°13.632 2°56.013 20.3892 0.056385 0.311937 -2.458615
2012-06-14 04:36:01 51°13.632 2°56.014 20.3904 0.056385 0.311954 -2.458615
2012-06-14 04:36:06 51°13.632 2°56.014 20.3899 0.056385 0.311965 -2.458615
2012-06-14 04:36:10 51°13.632 2°56.013 20.3925 0.056385 0.311965 -2.458615
2012-06-14 04:36:16 51°13.631 2°56.013 20.3938 0.056385 0.311976 -2.458615
2012-06-14 04:36:20 51°13.631 2°56.013 20.3942 0.056385 0.311982 -2.458615
2012-06-14 04:36:26 51°13.631 2°56.013 20.3936 0.056385 0.311982 -2.458615
2012-06-14 04:36:30 51°13.631 2°56.013 20.3938 0.056385 0.311987 -2.458615
2012-06-14 04:36:35 51°13.63 2°56.013 20.3881 0.056385 0.311987 -2.458615
2012-06-14 04:36:41 51°13.631 2°56.013 20.3882 0.056385 0.311987 -2.458615
2012-06-14 04:36:46 51°13.631 2°56.013 20.3855 0.056385 0.311987 -2.458615
2012-06-14 04:36:51 51°13.631 2°56.013 20.3825 0.056385 0.311987 -2.458615
2012-06-14 04:36:56 51°13.631 2°56.013 20.3827 0.056385 0.311993 -2.458615
2012-06-14 04:37:02 51°13.631 2°56.013 20.3821 0.056385 0.311993 -2.458615
2012-06-14 04:37:06 51°13.631 2°56.013 20.3784 0.056385 0.311999 -2.458615
2012-06-14 04:37:11 51°13.632 2°56.013 20.3755 0.056385 0.311999 -2.458615
2012-06-14 04:37:16 51°13.631 2°56.013 20.3753 0.056385 0.312004 -2.458615
2012-06-14 04:37:21 51°13.631 2°56.013 20.3775 0.056385 0.31201 -2.458615
2012-06-14 04:37:26 51°13.631 2°56.013 20.3793 0.056385 0.312016 -2.458615
2012-06-14 04:37:31 51°13.631 2°56.013 20.3806 0.056385 0.312016 -2.458615
2012-06-14 04:37:36 51°13.631 2°56.013 20.3821 0.056385 0.312021 -2.458615
2012-06-14 04:37:41 51°13.631 2°56.013 20.3819 0.056385 0.312021 -2.458615
2012-06-14 04:37:46 51°13.631 2°56.013 20.3802 0.056385 0.312027 -2.458615
2012-06-14 04:37:50 51°13.631 2°56.012 20.3781 0.056385 0.312032 -2.458615
2012-06-14 04:37:55 51°13.631 2°56.012 20.3739 0.056385 0.312032 -2.458615
2012-06-14 04:38:02 51°13.631 2°56.012 20.3746 0.056385 0.312038 -2.458615
2012-06-14 04:38:06 51°13.631 2°56.012 20.3735 0.056385 0.312044 -2.458615
2012-06-14 04:38:11 51°13.631 2°56.013 20.374 0.056385 0.312044 -2.458615
2012-06-14 04:38:16 51°13.631 2°56.012 20.3761 0.056385 0.312049 -2.458615
2012-06-14 04:38:21 51°13.631 2°56.012 20.3763 0.056385 0.312055 -2.458615
2012-06-14 04:38:26 51°13.63 2°56.012 20.3774 0.056385 0.31206 -2.458615
2012-06-14 04:38:31 51°13.63 2°56.012 20.3788 0.056385 0.312066 -2.458615
2012-06-14 04:38:35 51°13.63 2°56.012 20.3787 0.056385 0.312072 -2.458615
2012-06-14 04:38:40 51°13.63 2°56.012 20.3792 0.056385 0.312072 -2.458615
2012-06-14 04:38:45 51°13.631 2°56.012 20.3792 0.056385 0.312072 -2.458615
2012-06-14 04:38:50 51°13.63 2°56.012 20.3793 0.056385 0.312077 -2.458615
2012-06-14 04:38:55 51°13.63 2°56.012 20.3798 0.056385 0.312077 -2.458615
2012-06-14 04:39:00 51°13.63 2°56.012 20.3805 0.056385 0.312083 -2.458615
2012-06-14 04:39:05 51°13.63 2°56.012 20.3797 0.056385 0.312088 -2.458615
2012-06-14 04:39:10 51°13.631 2°56.013 19.9994 0.056385 0.312088 -2.458615
2012-06-14 04:39:15 51°13.63 2°56.013 19.9445 0.056385 0.312088 -2.458615
2012-06-14 04:39:19 51°13.63 2°56.013 19.9691 0.056385 0.312094 -2.458615
2012-06-14 04:39:25 51°13.631 2°56.013 20.0009 0.056385 0.3121 -2.458615
2012-06-14 04:39:30 51°13.631 2°56.013 20.0009 0.056385 0.312105 -2.458615
2012-06-14 04:39:35 51°13.631 2°56.013 20.0027 0.056385 0.312105 -2.458615
2012-06-14 04:39:40 51°13.631 2°56.013 20.0171 0.056385 0.312105 -2.458615
2012-06-14 04:39:47 51°13.631 2°56.012 20.0289 0.056385 0.312105 -2.458615
2012-06-14 04:39:52 51°13.631 2°56.012 20.0307 0.056385 0.312105 -2.458615
2012-06-14 04:39:56 51°13.631 2°56.012 20.0369 0.056385 0.312111 -2.458615
2012-06-14 04:40:01 51°13.631 2°56.012 20.0337 0.056385 0.312105 -2.458615
2012-06-14 04:40:06 51°13.631 2°56.012 20.0348 0.056385 0.312111 -2.458615
2012-06-14 04:40:12 51°13.631 2°56.012 20.0369 0.056385 0.312111 -2.458615
2012-06-14 04:40:16 51°13.631 2°56.012 20.0397 0.056385 0.312111 -2.458615
2012-06-14 04:40:21 51°13.631 2°56.012 20.0422 0.056385 0.312116 -2.458615
2012-06-14 04:40:26 51°13.631 2°56.012 20.0479 0.056385 0.312128 -2.458615
2012-06-14 04:40:31 51°13.631 2°56.012 20.0486 0.056385 0.312139 -2.458615
2012-06-14 04:40:36 51°13.631 2°56.012 20.0436 0.056385 0.31215 -2.458615
2012-06-14 04:40:41 51°13.631 2°56.012 20.0479 0.056385 0.31215 -2.458615
2012-06-14 04:40:46 51°13.631 2°56.012 20.0475 0.056385 0.312161 -2.458615
2012-06-14 04:40:51 51°13.631 2°56.013 20.0556 0.056385 0.312167 -2.458615
2012-06-14 04:40:56 51°13.631 2°56.013 20.0626 0.056385 0.312178 -2.458615
2012-06-14 04:41:01 51°13.63 2°56.013 20.0695 0.056385 0.312184 -2.458615
2012-06-14 04:41:06 51°13.63 2°56.013 20.076 0.056385 0.312184 -2.458615
2012-06-14 04:41:10 51°13.63 2°56.013 20.0783 0.056385 0.312184 -2.458615
2012-06-14 04:41:16 51°13.63 2°56.013 20.0837 0.056385 0.312189 -2.458615
2012-06-14 04:41:21 51°13.63 2°56.013 20.0883 0.056385 0.312189 -2.458615
2012-06-14 04:41:25 51°13.63 2°56.013 20.0893 0.056385 0.312189 -2.458615
2012-06-14 04:41:30 51°13.63 2°56.013 20.0892 0.056385 0.312189 -2.458615
2012-06-14 04:41:36 51°13.63 2°56.013 20.0884 0.056385 0.312189 -2.458615
2012-06-14 04:41:41 51°13.63 2°56.013 20.0913 0.056385 0.312189 -2.458615
2012-06-14 04:41:46 51°13.63 2°56.013 20.093 0.056385 0.312189 -2.458615
2012-06-14 04:41:51 51°13.63 2°56.013 20.0918 0.056385 0.312201 -2.458615
2012-06-14 04:41:56 51°13.63 2°56.013 20.0923 0.056385 0.312201 -2.458615
2012-06-14 04:42:01 51°13.63 2°56.013 20.0948 0.056385 0.312206 -2.458615
2012-06-14 04:42:06 51°13.63 2°56.013 20.0969 0.056385 0.312217 -2.458615
2012-06-14 04:42:10 51°13.63 2°56.013 20.0983 0.056385 0.312217 -2.458615
2012-06-14 04:42:16 51°13.63 2°56.013 20.1003 0.056385 0.312223 -2.458615
2012-06-14 04:42:21 51°13.63 2°56.013 20.1034 0.056385 0.312229 -2.458615
2012-06-14 04:42:27 51°13.63 2°56.013 20.1049 0.056385 0.312234 -2.458615
2012-06-14 04:42:31 51°13.63 2°56.013 20.1057 0.056282 0.311654 -2.458615
2012-06-14 04:42:36 51°13.63 2°56.013 20.1096 0.056385 0.312246 -2.458615
2012-06-14 04:42:41 51°13.63 2°56.013 20.1105 0.056385 0.312246 -2.458615
2012-06-14 04:42:46 51°13.63 2°56.013 20.1122 0.056385 0.312246 -2.458615
2012-06-14 04:42:51 51°13.629 2°56.013 20.1138 0.056282 0.311666 -2.458615
2012-06-14 04:42:55 51°13.629 2°56.013 20.1138 0.056385 0.312257 -2.458615
2012-06-14 04:43:00 51°13.629 2°56.013 20.1165 0.056282 0.311671 -2.458615
2012-06-14 04:43:06 51°13.629 2°56.013 20.1202 0.056282 0.311677 -2.458615
2012-06-14 04:43:11 51°13.629 2°56.013 20.1242 0.056282 0.311677 -2.458615
2012-06-14 04:43:16 51°13.629 2°56.013 20.128 0.056282 0.311677 -2.458615
2012-06-14 04:43:22 51°13.629 2°56.013 20.1325 0.056385 0.312268 -2.458615
2012-06-14 04:43:27 51°13.629 2°56.013 20.1347 0.056385 0.312274 -2.458615
2012-06-14 04:43:32 51°13.629 2°56.013 20.1375 0.056282 0.311694 -2.458615
2012-06-14 04:43:36 51°13.629 2°56.013 20.1354 0.056385 0.312285 -2.458615
2012-06-14 04:43:41 51°13.629 2°56.013 20.1353 0.056385 0.312285 -2.458615
2012-06-14 04:43:46 51°13.629 2°56.013 20.1323 0.056282 0.311705 -2.458615
2012-06-14 04:43:51 51°13.629 2°56.013 20.1341 0.056282 0.31171 -2.458615
2012-06-14 04:43:56 51°13.629 2°56.013 20.137 0.056282 0.311716 -2.458615
2012-06-14 04:44:00 51°13.629 2°56.013 20.1405 0.056282 0.311716 -2.458615
2012-06-14 04:44:06 51°13.629 2°56.014 20.1418 0.056282 0.311722 -2.458615
2012-06-14 04:44:11 51°13.629 2°56.014 20.1417 0.056282 0.311722 -2.458615
2012-06-14 04:44:17 51°13.629 2°56.014 20.1386 0.056282 0.311727 -2.458615
2012-06-14 04:44:21 51°13.629 2°56.014 20.1373 0.056282 0.311733 -2.458615
2012-06-14 04:44:26 51°13.63 2°56.014 20.1391 0.056282 0.311733 -2.458615
2012-06-14 04:44:31 51°13.63 2°56.014 20.1423 0.056282 0.311738 -2.458615
2012-06-14 04:44:36 51°13.63 2°56.014 20.1419 0.056282 0.311738 -2.458615
2012-06-14 04:44:41 51°13.63 2°56.014 20.1435 0.056282 0.311738 -2.458615
2012-06-14 04:44:45 51°13.63 2°56.014 20.1454 0.056282 0.311744 -2.458615
2012-06-14 04:44:51 51°13.631 2°56.014 20.1434 0.056282 0.31175 -2.458615
2012-06-14 04:44:56 51°13.631 2°56.014 20.1436 0.056282 0.311755 -2.458615
2012-06-14 04:45:01 51°13.631 2°56.014 20.1465 0.056282 0.311761 -2.458615
2012-06-14 04:45:06 51°13.631 2°56.014 20.1486 0.056282 0.311767 -2.458615
2012-06-14 04:45:11 51°13.631 2°56.014 20.1495 0.056282 0.311767 -2.458615
2012-06-14 04:45:16 51°13.631 2°56.014 20.1518 0.056282 0.311772 -2.458615
2012-06-14 04:45:21 51°13.631 2°56.014 20.1537 0.056282 0.311778 -2.458615
2012-06-14 04:45:25 51°13.631 2°56.014 20.1552 0.056282 0.311783 -2.458615
2012-06-14 04:45:30 51°13.631 2°56.014 20.1555 0.056282 0.311783 -2.458615
2012-06-14 04:45:36 51°13.631 2°56.014 20.1575 0.056282 0.311789 -2.458615
2012-06-14 04:45:41 51°13.631 2°56.014 20.1581 0.056282 0.311789 -2.458615
2012-06-14 04:45:46 51°13.631 2°56.014 20.1586 0.056282 0.311795 -2.458615
2012-06-14 04:45:51 51°13.631 2°56.014 20.1587 0.056282 0.311795 -2.458615
2012-06-14 04:45:56 51°13.631 2°56.015 20.1589 0.056282 0.3118 -2.458615
2012-06-14 04:46:01 51°13.631 2°56.015 20.1614 0.056282 0.311806 -2.458615
2012-06-14 04:46:06 51°13.631 2°56.015 20.1588 0.056282 0.311806 -2.458615
2012-06-14 04:46:11 51°13.631 2°56.015 20.157 0.056282 0.311806 -2.458615
2012-06-14 04:46:16 51°13.631 2°56.015 20.1571 0.056282 0.311811 -2.458615
2012-06-14 04:46:21 51°13.631 2°56.015 20.1587 0.056282 0.311817 -2.458615
2012-06-14 04:46:25 51°13.631 2°56.015 20.1595 0.056282 0.311823 -2.458615
2012-06-14 04:46:30 51°13.631 2°56.015 20.1616 0.056282 0.311828 -2.458615
2012-06-14 04:46:36 51°13.631 2°56.015 20.1643 0.056282 0.311834 -2.458615
2012-06-14 04:46:41 51°13.631 2°56.015 20.1644 0.056282 0.311834 -2.458615
2012-06-14 04:46:45 51°13.631 2°56.014 20.1658 0.056282 0.311834 -2.458615
2012-06-14 04:46:51 51°13.631 2°56.015 20.1667 0.056282 0.311839 -2.458615
2012-06-14 04:46:56 51°13.63 2°56.014 20.1664 0.056282 0.311845 -2.458615
2012-06-14 04:47:02 51°13.631 2°56.014 20.1667 0.056282 0.311851 -2.458615
2012-06-14 04:47:06 51°13.63 2°56.014 20.1695 0.056282 0.311856 -2.458615
2012-06-14 04:47:11 51°13.63 2°56.014 20.1736 0.056282 0.311856 -2.458615
2012-06-14 04:47:16 51°13.631 2°56.014 20.1752 0.056282 0.311862 -2.458615
2012-06-14 04:47:21 51°13.63 2°56.014 20.1737 0.056282 0.311862 -2.458615
2012-06-14 04:47:26 51°13.63 2°56.014 20.1734 0.056282 0.311868 -2.458615
2012-06-14 04:47:30 51°13.63 2°56.014 20.1748 0.056282 0.311868 -2.458615
2012-06-14 04:47:36 51°13.63 2°56.014 20.178 0.056282 0.311879 -2.458615
2012-06-14 04:47:41 51°13.63 2°56.014 20.1799 0.056282 0.311879 -2.458615
2012-06-14 04:47:46 51°13.63 2°56.014 20.1821 0.056282 0.311884 -2.458615
2012-06-14 04:47:50 51°13.63 2°56.014 20.1795 0.056282 0.311884 -2.458615
2012-06-14 04:47:56 51°13.63 2°56.014 20.1744 0.056282 0.31189 -2.458615
2012-06-14 04:48:01 51°13.631 2°56.012 20.1706 0.056282 0.311896 -2.458615
2012-06-14 04:48:06 51°13.631 2°56.01 20.1576 0.056282 0.311901 -2.458615
2012-06-14 04:48:10 51°13.631 2°56.007 20.165 0.056282 0.311901 -2.458615
2012-06-14 04:48:15 51°13.632 2°56.003 20.1617 0.056282 0.311907 -2.458615
2012-06-14 04:48:22 51°13.633 2°55.996 20.1662 0.056282 0.311918 -2.458615
2012-06-14 04:48:27 51°13.635 2°55.99 20.1633 0.056282 0.311924 -2.458615
2012-06-14 04:48:31 51°13.636 2°55.984 20.1692 0.056282 0.311924 -2.458615
2012-06-14 04:48:37 51°13.638 2°55.976 20.1776 0.056282 0.311924 -2.458615
2012-06-14 04:48:42 51°13.64 2°55.968 20.1794 0.056282 0.311924 -2.458615
2012-06-14 04:48:47 51°13.642 2°55.96 20.1801 0.056385 0.312515 -2.458615
2012-06-14 04:48:51 51°13.643 2°55.953 20.1764 0.056385 0.312515 -2.458615
2012-06-14 04:48:56 51°13.645 2°55.945 20.1721 0.056385 0.312515 -2.458615
2012-06-14 04:49:01 51°13.647 2°55.936 20.1697 0.056385 0.312521 -2.458615
2012-06-14 04:49:06 51°13.649 2°55.927 20.1757 0.056385 0.312521 -2.458615
2012-06-14 04:49:11 51°13.651 2°55.918 20.183 0.056385 0.312521 -2.458615
2012-06-14 04:49:16 51°13.654 2°55.909 20.1911 0.056385 0.312521 -2.458615
2012-06-14 04:49:21 51°13.656 2°55.899 20.186 0.056385 0.312527 -2.458615
2012-06-14 04:49:27 51°13.659 2°55.889 20.1897 0.056385 0.312532 -2.458615
2012-06-14 04:49:32 51°13.663 2°55.879 20.1842 0.056385 0.312538 -2.458615
2012-06-14 04:49:36 51°13.665 2°55.872 20.1847 0.056385 0.312544 -2.458615
2012-06-14 04:49:42 51°13.669 2°55.861 20.1911 0.056385 0.312544 -2.458615
2012-06-14 04:49:46 51°13.672 2°55.853 20.1887 0.056385 0.312549 -2.458615
2012-06-14 04:49:51 51°13.676 2°55.844 20.1882 0.056385 0.31256 -2.458615
2012-06-14 04:49:56 51°13.68 2°55.835 20.1866 0.056385 0.312566 -2.458615
2012-06-14 04:50:01 51°13.684 2°55.826 20.1876 0.056385 0.312572 -2.458615
2012-06-14 04:50:07 51°13.689 2°55.816 20.1883 0.056385 0.312577 -2.458615
2012-06-14 04:50:11 51°13.692 2°55.808 20.1879 0.056385 0.312577 -2.458615
2012-06-14 04:50:16 51°13.697 2°55.799 20.1878 0.056385 0.312583 -2.458615
2012-06-14 04:50:21 51°13.701 2°55.791 20.1875 0.056385 0.312589 -2.458615
2012-06-14 04:50:27 51°13.707 2°55.78 20.1889 0.056385 0.312589 -2.458615
2012-06-14 04:50:32 51°13.712 2°55.772 20.1927 0.056385 0.312594 -2.458615
2012-06-14 04:50:37 51°13.717 2°55.763 20.1968 0.056385 0.312594 -2.458615
2012-06-14 04:50:42 51°13.722 2°55.755 20.1929 0.056385 0.312594 -2.458615
2012-06-14 04:50:47 51°13.727 2°55.746 20.1929 0.056385 0.3126 -2.458615
2012-06-14 04:50:52 51°13.732 2°55.738 20.1861 0.056385 0.312605 -2.458615
2012-06-14 04:50:57 51°13.738 2°55.73 20.1877 0.056282 0.312025 -2.458615
2012-06-14 04:51:01 51°13.742 2°55.724 20.1915 0.056385 0.312617 -2.458615
2012-06-14 04:51:07 51°13.749 2°55.714 20.1927 0.056282 0.312036 -2.458615
2012-06-14 04:51:12 51°13.754 2°55.706 20.1934 0.056282 0.312036 -2.458615
2012-06-14 04:51:17 51°13.76 2°55.698 20.1911 0.056385 0.312628 -2.458615
2012-06-14 04:51:21 51°13.764 2°55.692 20.1956 0.056282 0.312047 -2.458615
2012-06-14 04:51:27 51°13.772 2°55.683 20.1944 0.056282 0.312053 -2.458615
2012-06-14 04:51:32 51°13.778 2°55.676 20.1897 0.056385 0.312645 -2.458615
2012-06-14 04:51:37 51°13.784 2°55.669 20.1896 0.056385 0.31265 -2.458615
2012-06-14 04:51:41 51°13.789 2°55.664 20.1991 0.056385 0.31265 -2.458615
2012-06-14 04:51:46 51°13.795 2°55.658 20.1951 0.056282 0.31207 -2.458615
2012-06-14 04:51:51 51°13.801 2°55.652 20.2004 0.056282 0.31207 -2.458615
2012-06-14 04:51:57 51°13.809 2°55.645 20.1983 0.056282 0.312075 -2.458615
2012-06-14 04:52:01 51°13.815 2°55.641 20.1998 0.056282 0.312081 -2.458615
2012-06-14 04:52:06 51°13.822 2°55.636 20.2022 0.056282 0.312081 -2.458615
2012-06-14 04:52:11 51°13.828 2°55.632 20.206 0.056282 0.312081 -2.458615
2012-06-14 04:52:16 51°13.835 2°55.628 20.2068 0.056282 0.312087 -2.458615
2012-06-14 04:52:21 51°13.843 2°55.624 20.2036 0.056385 0.312679 -2.458615
2012-06-14 04:52:26 51°13.85 2°55.621 20.2063 0.056282 0.312092 -2.458615
2012-06-14 04:52:32 51°13.859 2°55.618 20.1986 0.056282 0.312098 -2.458615
2012-06-14 04:52:37 51°13.866 2°55.616 20.2002 0.056282 0.312103 -2.458615
2012-06-14 04:52:42 51°13.873 2°55.614 20.2046 0.056282 0.312103 -2.458615
2012-06-14 04:52:46 51°13.879 2°55.613 20.2036 0.056282 0.312109 -2.458615
2012-06-14 04:52:51 51°13.886 2°55.613 20.2025 0.056282 0.312115 -2.458615
2012-06-14 04:52:56 51°13.893 2°55.612 20.2097 0.056282 0.31212 -2.458615
2012-06-14 04:53:01 51°13.9 2°55.612 20.2119 0.056282 0.312126 -2.458615
2012-06-14 04:53:06 51°13.907 2°55.613 20.2076 0.056282 0.312132 -2.458615
2012-06-14 04:53:12 51°13.914 2°55.614 20.2158 0.056282 0.312132 -2.458615
2012-06-14 04:53:16 51°13.92 2°55.615 20.2077 0.056282 0.312132 -2.458615
2012-06-14 04:53:21 51°13.926 2°55.617 20.2137 0.056282 0.312137 -2.458615
2012-06-14 04:53:26 51°13.932 2°55.619 20.2116 0.056282 0.312143 -2.458615
2012-06-14 04:53:32 51°13.939 2°55.621 20.2092 0.056282 0.312143 -2.458615
2012-06-14 04:53:37 51°13.944 2°55.624 20.204 0.056282 0.312154 -2.458615
2012-06-14 04:53:41 51°13.949 2°55.626 20.2145 0.056282 0.312154 -2.458615
2012-06-14 04:53:46 51°13.954 2°55.629 20.214 0.056282 0.312154 -2.458615
2012-06-14 04:53:52 51°13.959 2°55.633 20.2161 0.056282 0.31216 -2.458615
2012-06-14 04:53:56 51°13.962 2°55.635 20.2275 0.056282 0.312165 -2.458615
2012-06-14 04:54:01 51°13.966 2°55.638 20.22 0.056282 0.31216 -2.458615
2012-06-14 04:54:06 51°13.969 2°55.64 20.2246 0.056282 0.312154 -2.458615
2012-06-14 04:54:10 51°13.971 2°55.641 20.2262 0.056282 0.312154 -2.458615
2012-06-14 04:54:17 51°13.973 2°55.643 20.2219 0.056282 0.312148 -2.458615
2012-06-14 04:54:22 51°13.974 2°55.643 20.2193 0.056282 0.312148 -2.458615
2012-06-14 04:54:27 51°13.974 2°55.643 20.2229 0.056282 0.312143 -2.458615
2012-06-14 04:54:31 51°13.974 2°55.642 20.2156 0.056282 0.312154 -2.458615
2012-06-14 04:54:37 51°13.974 2°55.639 20.2139 0.056282 0.31216 -2.458615
2012-06-14 04:54:42 51°13.974 2°55.636 20.2145 0.056282 0.31216 -2.458615
2012-06-14 04:54:46 51°13.974 2°55.634 20.1625 0.056282 0.312177 -2.458615
2012-06-14 04:54:51 51°13.975 2°55.629 20.137 0.056282 0.312188 -2.458615
2012-06-14 04:54:56 51°13.975 2°55.625 20.1387 0.056282 0.312205 -2.458615
2012-06-14 04:55:02 51°13.976 2°55.618 20.1695 0.056282 0.312222 -2.458615
2012-06-14 04:55:06 51°13.977 2°55.614 20.1271 0.056282 0.312239 -2.458615
2012-06-14 04:55:11 51°13.979 2°55.608 20.1608 0.056282 0.312239 -2.458615
2012-06-14 04:55:16 51°13.981 2°55.602 20.1971 0.056282 0.31225 -2.458615
2012-06-14 04:55:22 51°13.985 2°55.593 20.2007 0.056282 0.312261 -2.458615
2012-06-14 04:55:27 51°13.989 2°55.586 20.1978 0.056282 0.312267 -2.458615
2012-06-14 04:55:32 51°13.993 2°55.579 20.2028 0.056282 0.312267 -2.458615
2012-06-14 04:55:36 51°13.998 2°55.572 20.2033 0.056282 0.312272 -2.458615
2012-06-14 04:55:41 51°14.003 2°55.563 20.2028 0.056282 0.312272 -2.458615
2012-06-14 04:55:46 51°14.01 2°55.554 20.1995 0.056282 0.312272 -2.458615
2012-06-14 04:55:51 51°14.017 2°55.545 20.1982 0.056282 0.312267 -2.458615
2012-06-14 04:55:56 51°14.024 2°55.535 20.1874 0.056282 0.312261 -2.458615
2012-06-14 04:56:01 51°14.032 2°55.526 20.1934 0.056282 0.312261 -2.458615
2012-06-14 04:56:06 51°14.041 2°55.516 20.177 0.056282 0.312267 -2.458615
2012-06-14 04:56:11 51°14.049 2°55.506 20.1721 0.056282 0.312267 -2.458615
2012-06-14 04:56:17 51°14.06 2°55.495 20.1662 0.056282 0.312267 -2.458615
2012-06-14 04:56:21 51°14.068 2°55.487 20.1953 0.056282 0.312267 -2.458615
2012-06-14 04:56:26 51°14.077 2°55.477 20.1796 0.056282 0.312272 -2.458615
2012-06-14 04:56:31 51°14.087 2°55.468 20.1789 0.056282 0.312284 -2.458615
2012-06-14 04:56:37 51°14.099 2°55.456 20.1953 0.056282 0.312295 -2.458615
2012-06-14 04:56:42 51°14.109 2°55.446 20.1875 0.056282 0.312295 -2.458615
2012-06-14 04:56:46 51°14.117 2°55.437 20.1795 0.056282 0.3123 -2.458615
2012-06-14 04:56:51 51°14.127 2°55.427 20.1779 0.056282 0.312306 -2.458615
2012-06-14 04:56:57 51°14.14 2°55.415 20.188 0.056282 0.312312 -2.458615
2012-06-14 04:57:02 51°14.15 2°55.404 20.1911 0.056282 0.312312 -2.458615
2012-06-14 04:57:06 51°14.159 2°55.396 20.1866 0.056282 0.312317 -2.458615
2012-06-14 04:57:11 51°14.169 2°55.386 20.1846 0.056282 0.312317 -2.458615
2012-06-14 04:57:16 51°14.18 2°55.376 20.1844 0.056282 0.312317 -2.458615
2012-06-14 04:57:21 51°14.19 2°55.366 20.2034 0.056282 0.312317 -2.458615
2012-06-14 04:57:26 51°14.201 2°55.355 20.1805 0.056282 0.312323 -2.458615
2012-06-14 04:57:32 51°14.214 2°55.343 20.1856 0.056282 0.312323 -2.458615
2012-06-14 04:57:37 51°14.225 2°55.332 20.201 0.056282 0.312329 -2.458615
2012-06-14 04:57:42 51°14.236 2°55.322 20.1896 0.056282 0.312329 -2.458615
2012-06-14 04:57:47 51°14.248 2°55.312 20.0852 0.056282 0.312334 -2.458615
2012-06-14 04:57:51 51°14.256 2°55.304 20.0753 0.056282 0.312334 -2.458615
2012-06-14 04:57:56 51°14.268 2°55.294 20.1206 0.056282 0.31234 -2.458615
2012-06-14 04:58:01 51°14.279 2°55.284 20.1257 0.056282 0.312346 -2.458615
2012-06-14 04:58:07 51°14.292 2°55.271 20.112 0.056282 0.312351 -2.458615
2012-06-14 04:58:11 51°14.301 2°55.264 20.1209 0.056282 0.312351 -2.458615
2012-06-14 04:58:16 51°14.313 2°55.253 20.1049 0.056282 0.312357 -2.458615
2012-06-14 04:58:22 51°14.327 2°55.241 20.1376 0.056282 0.312362 -2.458615
2012-06-14 04:58:26 51°14.336 2°55.232 20.1333 0.056282 0.312379 -2.458615
2012-06-14 04:58:31 51°14.348 2°55.221 20.1467 0.056282 0.312402 -2.458615
2012-06-14 04:58:37 51°14.362 2°55.208 20.1455 0.056282 0.312413 -2.458615
2012-06-14 04:58:41 51°14.371 2°55.198 20.1524 0.056282 0.312413 -2.458615
2012-06-14 04:58:46 51°14.383 2°55.187 20.1344 0.056282 0.312419 -2.458615
2012-06-14 04:58:51 51°14.394 2°55.175 20.1296 0.056282 0.312419 -2.458615
2012-06-14 04:58:57 51°14.408 2°55.16 20.0992 0.056282 0.312413 -2.458615
2012-06-14 04:59:02 51°14.42 2°55.147 20.1339 0.056282 0.312407 -2.458615
2012-06-14 04:59:06 51°14.43 2°55.138 20.1474 0.056282 0.312396 -2.458615
2012-06-14 04:59:11 51°14.442 2°55.125 20.1354 0.056282 0.312396 -2.458615
2012-06-14 04:59:16 51°14.454 2°55.112 20.1463 0.056282 0.312385 -2.458615
2012-06-14 04:59:22 51°14.468 2°55.096 20.1052 0.056282 0.312379 -2.458615
2012-06-14 04:59:27 51°14.48 2°55.083 20.1209 0.056282 0.312379 -2.458615
2012-06-14 04:59:31 51°14.49 2°55.072 20.1418 0.056282 0.312379 -2.458615
2012-06-14 04:59:36 51°14.502 2°55.059 20.1483 0.056282 0.312385 -2.458615
2012-06-14 04:59:42 51°14.516 2°55.043 20.1513 0.056282 0.312385 -2.458615
2012-06-14 04:59:46 51°14.525 2°55.031 20.1261 0.056282 0.312396 -2.458615
2012-06-14 04:59:51 51°14.537 2°55.016 20.1146 0.056282 0.312407 -2.458615
2012-06-14 04:59:56 51°14.548 2°55.002 20.1372 0.056282 0.312424 -2.458615
2012-06-14 05:00:01 51°14.56 2°54.987 20.1335 0.056179 0.311843 -2.458615
2012-06-14 05:00:06 51°14.572 2°54.971 20.1136 0.056179 0.311854 -2.458615
2012-06-14 05:00:11 51°14.584 2°54.955 20.1124 0.056179 0.311854 -2.458615
2012-06-14 05:00:15 51°14.594 2°54.942 20.1115 0.056282 0.312441 -2.458615
2012-06-14 05:00:20 51°14.606 2°54.927 20.1368 0.056179 0.31186 -2.458615
2012-06-14 05:00:25 51°14.619 2°54.91 20.1314 0.056179 0.31186 -2.458615
2012-06-14 05:00:30 51°14.631 2°54.894 20.1407 0.056179 0.311854 -2.458615
2012-06-14 05:00:35 51°14.643 2°54.877 20.1264 0.056179 0.311854 -2.458615
2012-06-14 05:00:39 51°14.653 2°54.863 20.1203 0.056179 0.311854 -2.458615
2012-06-14 05:00:44 51°14.666 2°54.846 20.1206 0.056282 0.312436 -2.458615
2012-06-14 05:00:49 51°14.678 2°54.829 20.1111 0.056179 0.311854 -2.458615
2012-06-14 05:00:54 51°14.691 2°54.811 20.1483 0.056282 0.312441 -2.458615
2012-06-14 05:00:59 51°14.703 2°54.794 20.12 0.056179 0.311854 -2.458615
2012-06-14 05:01:03 51°14.713 2°54.78 20.1278 0.056179 0.31186 -2.458615
2012-06-14 05:01:08 51°14.725 2°54.762 20.1025 0.056179 0.31186 -2.458615
2012-06-14 05:01:14 51°14.741 2°54.741 20.1121 0.056282 0.312447 -2.458615
2012-06-14 05:01:18 51°14.751 2°54.728 20.1211 0.056179 0.311866 -2.458615
2012-06-14 05:01:23 51°14.764 2°54.712 20.1462 0.056282 0.312464 -2.458615
2012-06-14 05:01:28 51°14.778 2°54.696 20.1283 0.056282 0.31247 -2.458615
2012-06-14 05:01:33 51°14.791 2°54.679 20.1441 0.056282 0.312475 -2.458615
2012-06-14 05:01:38 51°14.804 2°54.664 20.1187 0.056282 0.312475 -2.458615
2012-06-14 05:01:43 51°14.818 2°54.648 20.1472 0.056282 0.312481 -2.458615
2012-06-14 05:01:47 51°14.829 2°54.635 20.1481 0.056179 0.311905 -2.458615
2012-06-14 05:01:53 51°14.845 2°54.616 20.1416 0.056179 0.311905 -2.458615
2012-06-14 05:01:58 51°14.859 2°54.6 20.1301 0.056179 0.311905 -2.458615
2012-06-14 05:02:04 51°14.874 2°54.579 20.1486 0.056282 0.312498 -2.458615
2012-06-14 05:02:09 51°14.887 2°54.56 20.1093 0.056282 0.312498 -2.458615
2012-06-14 05:02:14 51°14.9 2°54.542 20.1448 0.056282 0.312492 -2.458615
2012-06-14 05:02:19 51°14.913 2°54.525 20.1693 0.056179 0.311911 -2.458615
2012-06-14 05:02:25 51°14.927 2°54.502 20.1253 0.056282 0.312498 -2.458615
2012-06-14 05:02:30 51°14.94 2°54.483 20.1432 0.056179 0.311911 -2.458615
2012-06-14 05:02:35 51°14.952 2°54.464 20.1186 0.056179 0.311916 -2.458615
2012-06-14 05:02:39 51°14.961 2°54.449 20.146 0.056179 0.311916 -2.458615
2012-06-14 05:02:44 51°14.973 2°54.43 20.1455 0.056179 0.311911 -2.458615
2012-06-14 05:02:49 51°14.986 2°54.411 20.1465 0.056179 0.311916 -2.458615
2012-06-14 05:02:54 51°14.998 2°54.393 20.1579 0.056179 0.311922 -2.458615
2012-06-14 05:02:59 51°15.01 2°54.374 20.1308 0.056179 0.311927 -2.458615
2012-06-14 05:03:03 51°15.02 2°54.359 20.1501 0.056282 0.31252 -2.458615
2012-06-14 05:03:08 51°15.032 2°54.34 20.1493 0.056282 0.31252 -2.458615
2012-06-14 05:03:14 51°15.046 2°54.316 20.1273 0.056179 0.311939 -2.458615
2012-06-14 05:03:19 51°15.058 2°54.297 20.1348 0.056179 0.311939 -2.458615
2012-06-14 05:03:23 51°15.068 2°54.281 20.1542 0.056179 0.311944 -2.458615
2012-06-14 05:03:28 51°15.079 2°54.262 20.1398 0.056179 0.311944 -2.458615
2012-06-14 05:03:33 51°15.091 2°54.244 20.1268 0.056282 0.312537 -2.458615
2012-06-14 05:03:38 51°15.104 2°54.225 20.1341 0.056282 0.312537 -2.458615
2012-06-14 05:03:43 51°15.116 2°54.207 20.1476 0.056179 0.31195 -2.458615
2012-06-14 05:03:48 51°15.128 2°54.189 20.1679 0.056179 0.311956 -2.458615
2012-06-14 05:03:53 51°15.14 2°54.17 20.1483 0.056282 0.312543 -2.458615
2012-06-14 05:03:58 51°15.152 2°54.151 20.1446 0.056179 0.31195 -2.458615
2012-06-14 05:04:03 51°15.164 2°54.133 20.148 0.056282 0.312543 -2.458615
2012-06-14 05:04:08 51°15.177 2°54.114 20.15 0.056282 0.312543 -2.458615
2012-06-14 05:04:13 51°15.189 2°54.096 20.1372 0.056179 0.31195 -2.458615
2012-06-14 05:04:18 51°15.201 2°54.078 20.1287 0.056179 0.311956 -2.458615
2012-06-14 05:04:23 51°15.213 2°54.06 20.1573 0.056179 0.311956 -2.458615
2012-06-14 05:04:28 51°15.226 2°54.044 20.1596 0.056179 0.311961 -2.458615
2012-06-14 05:04:33 51°15.239 2°54.027 20.1453 0.056179 0.311967 -2.458615
2012-06-14 05:04:38 51°15.252 2°54.01 20.1334 0.056179 0.311967 -2.458615
2012-06-14 05:04:43 51°15.265 2°53.993 20.1392 0.056282 0.312554 -2.458615
2012-06-14 05:04:48 51°15.278 2°53.977 20.1685 0.056179 0.311972 -2.458615
2012-06-14 05:04:53 51°15.291 2°53.961 20.1626 0.056179 0.311978 -2.458615
2012-06-14 05:04:58 51°15.304 2°53.944 20.1496 0.056179 0.311984 -2.458615
2012-06-14 05:05:03 51°15.317 2°53.928 20.1601 0.056179 0.311989 -2.458615
2012-06-14 05:05:08 51°15.331 2°53.913 20.1385 0.056179 0.311989 -2.458615
2012-06-14 05:05:13 51°15.344 2°53.896 20.1467 0.056179 0.311995 -2.458615
2012-06-14 05:05:18 51°15.357 2°53.88 20.1602 0.056179 0.311995 -2.458615
2012-06-14 05:05:23 51°15.371 2°53.866 20.1627 0.056179 0.311995 -2.458615
2012-06-14 05:05:27 51°15.382 2°53.854 20.1395 0.056179 0.312001 -2.458615
2012-06-14 05:05:33 51°15.399 2°53.836 20.1491 0.056179 0.312001 -2.458615
2012-06-14 05:05:38 51°15.413 2°53.821 20.1621 0.056179 0.312001 -2.458615
2012-06-14 05:05:43 51°15.426 2°53.807 20.1534 0.056179 0.312006 -2.458615
2012-06-14 05:05:47 51°15.438 2°53.795 20.1555 0.056282 0.312594 -2.458615
2012-06-14 05:05:53 51°15.455 2°53.778 20.1407 0.056179 0.312012 -2.458615
2012-06-14 05:05:58 51°15.469 2°53.764 20.1641 0.056179 0.312012 -2.458615
2012-06-14 05:06:03 51°15.483 2°53.751 20.1553 0.056179 0.312023 -2.458615
2012-06-14 05:06:08 51°15.497 2°53.735 20.1583 0.056179 0.312023 -2.458615
2012-06-14 05:06:13 51°15.51 2°53.721 20.1498 0.056179 0.312029 -2.458615
2012-06-14 05:06:18 51°15.524 2°53.706 20.1518 0.056179 0.312023 -2.458615
2012-06-14 05:06:23 51°15.538 2°53.693 20.1562 0.056179 0.312029 -2.458615
2012-06-14 05:06:27 51°15.549 2°53.681 20.139 0.056179 0.312029 -2.458615
2012-06-14 05:06:33 51°15.566 2°53.664 20.1569 0.056179 0.312029 -2.458615
2012-06-14 05:06:38 51°15.58 2°53.65 20.1617 0.056179 0.312029 -2.458615
2012-06-14 05:06:43 51°15.594 2°53.636 20.1595 0.056179 0.312029 -2.458615
2012-06-14 05:06:48 51°15.608 2°53.622 20.1632 0.056179 0.312034 -2.458615
2012-06-14 05:06:53 51°15.623 2°53.608 20.1685 0.056179 0.312034 -2.458615
2012-06-14 05:06:58 51°15.637 2°53.595 20.1555 0.056179 0.31204 -2.458615
2012-06-14 05:07:03 51°15.651 2°53.58 20.1632 0.056179 0.31204 -2.458615
2012-06-14 05:07:08 51°15.665 2°53.566 20.1564 0.056179 0.31204 -2.458615
2012-06-14 05:07:13 51°15.68 2°53.552 20.1617 0.056179 0.31204 -2.458615
2012-06-14 05:07:18 51°15.694 2°53.538 20.1499 0.056179 0.312046 -2.458615
2012-06-14 05:07:23 51°15.708 2°53.524 20.164 0.056179 0.312051 -2.458615
2012-06-14 05:07:28 51°15.723 2°53.51 20.1564 0.056179 0.312051 -2.458615
2012-06-14 05:07:33 51°15.737 2°53.497 20.1494 0.056179 0.312057 -2.458615
2012-06-14 05:07:38 51°15.751 2°53.483 20.1497 0.056179 0.312057 -2.458615
2012-06-14 05:07:43 51°15.765 2°53.469 20.1646 0.056179 0.312057 -2.458615
2012-06-14 05:07:48 51°15.78 2°53.456 20.1644 0.056179 0.312063 -2.458615
2012-06-14 05:07:53 51°15.793 2°53.441 20.1625 0.056179 0.312063 -2.458615
2012-06-14 05:07:58 51°15.808 2°53.428 20.1526 0.056179 0.312068 -2.458615
2012-06-14 05:08:03 51°15.822 2°53.414 20.1477 0.056179 0.312063 -2.458615
2012-06-14 05:08:08 51°15.837 2°53.4 20.1641 0.056179 0.312063 -2.458615
2012-06-14 05:08:13 51°15.851 2°53.386 20.1693 0.056179 0.312063 -2.458615
2012-06-14 05:08:18 51°15.865 2°53.372 20.155 0.056179 0.312068 -2.458615
2012-06-14 05:08:23 51°15.879 2°53.358 20.1572 0.056179 0.312068 -2.458615
2012-06-14 05:08:27 51°15.891 2°53.347 20.1644 0.056179 0.312068 -2.458615
2012-06-14 05:08:33 51°15.907 2°53.331 20.1699 0.056179 0.312068 -2.458615
2012-06-14 05:08:38 51°15.922 2°53.318 20.1571 0.056179 0.312068 -2.458615
2012-06-14 05:08:43 51°15.937 2°53.304 20.1568 0.056179 0.312068 -2.458615
2012-06-14 05:08:48 51°15.952 2°53.291 20.1633 0.056179 0.312074 -2.458615
2012-06-14 05:08:53 51°15.966 2°53.278 20.1679 0.056179 0.312074 -2.458615
2012-06-14 05:08:58 51°15.98 2°53.265 20.167 0.056179 0.312074 -2.458615
2012-06-14 05:09:03 51°15.995 2°53.251 20.16 0.056179 0.31208 -2.458615
2012-06-14 05:09:08 51°16.009 2°53.238 20.1493 0.056179 0.31208 -2.458615
2012-06-14 05:09:13 51°16.024 2°53.225 20.1554 0.056282 0.312667 -2.458615
2012-06-14 05:09:18 51°16.038 2°53.212 20.1734 0.056179 0.31208 -2.458615
2012-06-14 05:09:23 51°16.052 2°53.2 20.1554 0.056179 0.31208 -2.458615
2012-06-14 05:09:28 51°16.067 2°53.188 20.1569 0.056179 0.31208 -2.458615
2012-06-14 05:09:33 51°16.082 2°53.176 20.1724 0.056179 0.31208 -2.458615
2012-06-14 05:09:38 51°16.096 2°53.165 20.1614 0.056179 0.31208 -2.458615
2012-06-14 05:09:43 51°16.111 2°53.154 20.1631 0.056179 0.31208 -2.458615
2012-06-14 05:09:47 51°16.124 2°53.145 20.1747 0.056179 0.31208 -2.458615
2012-06-14 05:09:53 51°16.142 2°53.133 20.1598 0.056179 0.31208 -2.458615
2012-06-14 05:09:58 51°16.157 2°53.124 20.1602 0.056179 0.31208 -2.458615
2012-06-14 05:10:03 51°16.172 2°53.114 20.1739 0.056179 0.31208 -2.458615
2012-06-14 05:10:08 51°16.187 2°53.105 20.1607 0.056179 0.31208 -2.458615
2012-06-14 05:10:13 51°16.203 2°53.096 20.1707 0.056282 0.312667 -2.458615
2012-06-14 05:10:18 51°16.218 2°53.086 20.1792 0.056179 0.31208 -2.458615
2012-06-14 05:10:23 51°16.233 2°53.077 20.1706 0.056179 0.31208 -2.458615
2012-06-14 05:10:28 51°16.248 2°53.067 20.1629 0.056179 0.31208 -2.458615
2012-06-14 05:10:33 51°16.264 2°53.058 20.1683 0.056179 0.31208 -2.458615
2012-06-14 05:10:38 51°16.278 2°53.049 20.179 0.056179 0.31208 -2.458615
2012-06-14 05:10:43 51°16.293 2°53.04 19.839 0.056179 0.31208 -2.458615
2012-06-14 05:10:48 51°16.308 2°53.03 17.6473 0.05731 0.318447 -2.458615
2012-06-14 05:10:53 51°16.323 2°53.02 16.8295 0.05731 0.317907 -2.458615
2012-06-14 05:10:58 51°16.339 2°53.011 16.4073 0.100288 0.571721 -2.458615
2012-06-14 05:11:03 51°16.354 2°53.001 16.1317 1.126247 7.283719 -2.458615
2012-06-14 05:11:08 51°16.37 2°52.992 16.0178 1.126247 7.283719 -2.458615
2012-06-14 05:11:13 51°16.385 2°52.982 15.8709 2.085547 14.11991 -2.458615
2012-06-14 05:11:18 51°16.4 2°52.973 15.7208 2.977937 20.811736 -2.458615
2012-06-14 05:11:23 51°16.416 2°52.965 15.666 2.956846 20.925475 -2.458615
2012-06-14 05:11:28 51°16.431 2°52.955 15.6552 3.012077 21.672977 -2.458615
2012-06-14 05:11:33 51°16.447 2°52.947 15.6758 3.152863 23.13585 -2.458615
2012-06-14 05:11:38 51°16.462 2°52.939 15.58 3.152863 23.13585 -2.458615
2012-06-14 05:11:43 51°16.477 2°52.93 15.5431 3.372757 25.300555 -2.458615
2012-06-14 05:11:48 51°16.493 2°52.921 15.5571 3.612733 27.552744 -2.458615
2012-06-14 05:11:53 51°16.508 2°52.911 15.5153 3.781969 29.241039 -2.458615
2012-06-14 05:11:58 51°16.523 2°52.902 15.4599 3.855523 30.017999 -2.458615
2012-06-14 05:12:03 51°16.538 2°52.892 15.4527 3.881737 30.353096 -2.458615
2012-06-14 05:12:07 51°16.55 2°52.884 15.437 3.881737 30.353096 -2.458615
2012-06-14 05:12:13 51°16.569 2°52.872 15.4541 3.895104 30.547182 -2.458615
2012-06-14 05:12:18 51°16.583 2°52.863 15.4087 3.895727 30.63081 -2.458615
2012-06-14 05:12:23 51°16.598 2°52.853 15.3871 3.896038 30.673434 -2.458615
2012-06-14 05:12:27 51°16.61 2°52.844 15.3798 3.889822 30.660176 -2.458615
2012-06-14 05:12:33 51°16.627 2°52.83 15.3772 3.891999 30.724453 -2.458615
2012-06-14 05:12:38 51°16.641 2°52.818 15.3679 3.891999 30.724453 -2.458615
2012-06-14 05:12:43 51°16.656 2°52.806 15.3724 3.89718 30.805137 -2.458615
2012-06-14 05:12:48 51°16.67 2°52.794 15.3593 3.898735 30.843807 -2.458615
2012-06-14 05:12:53 51°16.684 2°52.782 15.356 3.902569 30.901995 -2.458615
2012-06-14 05:12:58 51°16.698 2°52.769 15.3579 3.915417 31.038551 -2.458615
2012-06-14 05:13:03 51°16.712 2°52.757 15.3484 3.921324 31.106894 -2.458615
2012-06-14 05:13:08 51°16.726 2°52.745 15.3704 3.921324 31.106894 -2.458615
2012-06-14 05:13:13 51°16.74 2°52.732 15.3329 3.924329 31.151627 -2.458615
2012-06-14 05:13:18 51°16.753 2°52.72 15.3305 3.927437 31.188869 -2.458615
2012-06-14 05:13:23 51°16.767 2°52.708 15.3444 3.930753 31.228625 -2.458615
2012-06-14 05:13:28 51°16.781 2°52.696 15.3418 3.932308 31.251514 -2.458615
2012-06-14 05:13:33 51°16.796 2°52.685 15.3166 3.93438 31.275085 -2.458615
2012-06-14 05:13:38 51°16.81 2°52.674 15.2998 3.93438 31.275085 -2.458615
2012-06-14 05:13:43 51°16.824 2°52.664 15.3084 3.935624 31.291324 -2.458615
2012-06-14 05:13:48 51°16.839 2°52.654 15.3086 3.936867 31.310841 -2.458615
2012-06-14 05:13:53 51°16.853 2°52.645 15.3026 3.939147 31.340864 -2.458615
2012-06-14 05:13:58 51°16.869 2°52.636 15.3017 3.940701 31.358573 -2.458615
2012-06-14 05:14:03 51°16.883 2°52.628 15.2845 3.941841 31.37327 -2.458615
2012-06-14 05:14:08 51°16.897 2°52.619 15.3109 3.941841 31.37327 -2.458615
2012-06-14 05:14:13 51°16.912 2°52.609 15.2964 3.942774 31.390074 -2.458615
2012-06-14 05:14:18 51°16.927 2°52.599 15.2812 3.942878 31.400193 -2.458615
2012-06-14 05:14:23 51°16.941 2°52.588 15.3139 3.944432 31.41727 -2.458615
2012-06-14 05:14:27 51°16.952 2°52.58 15.2909 3.9435 31.410311 -2.458615
2012-06-14 05:14:33 51°16.969 2°52.567 15.2739 3.942153 31.402304 -2.458615
2012-06-14 05:14:38 51°16.983 2°52.556 15.2767 3.942153 31.402304 -2.458615
2012-06-14 05:14:43 51°16.997 2°52.544 15.2777 3.948266 31.462487 -2.458615
2012-06-14 05:14:48 51°17.011 2°52.532 15.2757 3.94837 31.468021 -2.458615
2012-06-14 05:14:53 51°17.025 2°52.522 15.2735 3.947748 31.464478 -2.458615
2012-06-14 05:14:58 51°17.039 2°52.511 15.2723 3.947956 31.466978 -2.458615
2012-06-14 05:15:03 51°17.054 2°52.5 15.2698 3.947541 31.466594 -2.458615
2012-06-14 05:15:08 51°17.068 2°52.49 15.2551 3.947541 31.466594 -2.458615
2012-06-14 05:15:13 51°17.082 2°52.479 15.2647 3.948059 31.47713 -2.458615
2012-06-14 05:15:18 51°17.096 2°52.468 15.2576 3.948681 31.485952 -2.458615
2012-06-14 05:15:23 51°17.111 2°52.458 15.2475 3.949614 31.498858 -2.458615
2012-06-14 05:15:27 51°17.122 2°52.45 15.2497 3.950028 31.505843 -2.458615
2012-06-14 05:15:33 51°17.139 2°52.436 15.2467 3.950547 31.512429 -2.458615
2012-06-14 05:15:38 51°17.153 2°52.426 15.2565 3.950547 31.512429 -2.458615
2012-06-14 05:15:43 51°17.167 2°52.415 15.236 3.951272 31.522841 -2.458615
2012-06-14 05:15:48 51°17.182 2°52.405 15.2365 3.951168 31.525887 -2.458615
2012-06-14 05:15:53 51°17.196 2°52.394 15.235 3.951687 31.535784 -2.458615
2012-06-14 05:15:58 51°17.21 2°52.384 15.235 3.951583 31.536848 -2.458615
2012-06-14 05:16:03 51°17.225 2°52.375 15.2245 3.952412 31.54819 -2.458615
2012-06-14 05:16:08 51°17.239 2°52.365 15.2248 3.952412 31.54819 -2.458615
2012-06-14 05:16:13 51°17.253 2°52.356 15.2252 3.952309 31.549254 -2.458615
2012-06-14 05:16:18 51°17.268 2°52.347 15.2136 3.953241 31.560198 -2.458615
2012-06-14 05:16:23 51°17.283 2°52.339 15.2069 3.953241 31.562847 -2.458615
2012-06-14 05:16:27 51°17.295 2°52.334 15.2097 3.953552 31.569588 -2.458615
2012-06-14 05:16:33 51°17.312 2°52.326 15.2025 3.954796 31.583303 -2.458615
2012-06-14 05:16:38 51°17.328 2°52.32 15.2241 3.954796 31.583303 -2.458615
2012-06-14 05:16:43 51°17.343 2°52.315 15.2174 3.956972 31.606647 -2.458615
2012-06-14 05:16:47 51°17.355 2°52.311 15.2148 3.956972 31.608638 -2.458615
2012-06-14 05:16:53 51°17.374 2°52.306 15.2172 3.954692 31.593657 -2.458615
2012-06-14 05:16:58 51°17.389 2°52.302 15.2154 3.955729 31.604872 -2.458615
2012-06-14 05:17:03 51°17.404 2°52.298 15.2105 3.956868 31.619668 -2.458615
2012-06-14 05:17:07 51°17.417 2°52.296 15.212 3.956868 31.619668 -2.458615
2012-06-14 05:17:13 51°17.435 2°52.292 15.2 3.957179 31.624429 -2.458615
2012-06-14 05:17:18 51°17.451 2°52.289 15.2116 3.957179 31.623765 -2.458615
2012-06-14 05:17:23 51°17.466 2°52.287 15.2114 3.958112 31.632734 -2.458615
2012-06-14 05:17:28 51°17.482 2°52.285 15.2043 3.958423 31.636831 -2.458615
2012-06-14 05:17:33 51°17.497 2°52.283 15.1885 3.959252 31.644878 -2.458615
2012-06-14 05:17:38 51°17.513 2°52.281 15.1842 3.959252 31.644878 -2.458615
2012-06-14 05:17:43 51°17.528 2°52.278 15.187 3.958941 31.64344 -2.458615
2012-06-14 05:17:48 51°17.544 2°52.276 15.1887 3.960392 31.658355 -2.458615
2012-06-14 05:17:53 51°17.559 2°52.272 15.1927 3.960703 31.663786 -2.458615
2012-06-14 05:17:58 51°17.574 2°52.269 15.1931 3.961014 31.667221 -2.458615
2012-06-14 05:18:03 51°17.589 2°52.266 15.1845 3.961739 31.675014 -2.458615
2012-06-14 05:18:08 51°17.605 2°52.262 15.1913 3.961739 31.675014 -2.458615
2012-06-14 05:18:13 51°17.62 2°52.258 15.1895 3.961532 31.677829 -2.458615
2012-06-14 05:18:18 51°17.635 2°52.254 15.183 3.962672 31.692649 -2.458615
2012-06-14 05:18:23 51°17.651 2°52.25 15.1869 3.963397 31.701113 -2.458615
2012-06-14 05:18:28 51°17.666 2°52.245 15.1853 3.963397 31.701113 -2.458615
2012-06-14 05:18:33 51°17.681 2°52.24 15.1881 3.963708 31.70455 -2.458615
2012-06-14 05:18:38 51°17.696 2°52.235 15.1827 3.963708 31.70455 -2.458615
2012-06-14 05:18:43 51°17.711 2°52.23 15.1931 3.963501 31.70337 -2.458615
2012-06-14 05:18:47 51°17.723 2°52.225 15.1793 3.965781 31.725024 -2.458615
2012-06-14 05:18:53 51°17.742 2°52.218 15.1725 3.965159 31.720816 -2.458615
2012-06-14 05:18:58 51°17.757 2°52.212 15.1758 3.965159 31.72215 -2.458615
2012-06-14 05:19:03 51°17.772 2°52.205 15.1782 3.964848 31.719379 -2.458615
2012-06-14 05:19:07 51°17.784 2°52.2 15.1796 3.964848 31.719379 -2.458615
2012-06-14 05:19:13 51°17.802 2°52.191 15.1692 3.964537 31.717275 -2.458615
2012-06-14 05:19:18 51°17.817 2°52.185 15.1685 3.965573 31.72718 -2.458615
2012-06-14 05:19:23 51°17.832 2°52.179 15.1635 3.965781 31.729695 -2.458615
2012-06-14 05:19:28 51°17.847 2°52.172 15.1607 3.964952 31.724973 -2.458615
2012-06-14 05:19:33 51°17.863 2°52.166 15.1546 3.965159 31.728156 -2.458615
2012-06-14 05:19:38 51°17.878 2°52.161 15.1504 3.965159 31.728156 -2.458615
2012-06-14 05:19:43 51°17.893 2°52.155 15.1494 3.96433 31.722099 -2.458615
2012-06-14 05:19:48 51°17.909 2°52.149 15.1469 3.963294 31.714194 -2.458615
2012-06-14 05:19:53 51°17.924 2°52.143 15.1462 3.962154 31.706699 -2.458615
2012-06-14 05:19:58 51°17.939 2°52.138 15.1487 3.96174 31.705005 -2.458615
2012-06-14 05:20:03 51°17.955 2°52.133 15.1428 3.959667 31.690526 -2.458615
2012-06-14 05:20:07 51°17.967 2°52.128 15.14 3.959667 31.690526 -2.458615
2012-06-14 05:20:13 51°17.985 2°52.122 15.1434 3.958735 31.685544 -2.458615
2012-06-14 05:20:18 51°18.001 2°52.117 15.1408 3.957491 31.677789 -2.458615
2012-06-14 05:20:23 51°18.016 2°52.112 15.1367 3.956662 31.673062 -2.458615
2012-06-14 05:20:28 51°18.032 2°52.107 15.1385 3.956973 31.67917 -2.458615
2012-06-14 05:20:33 51°18.047 2°52.103 15.1393 3.956662 31.677731 -2.458615
2012-06-14 05:20:38 51°18.063 2°52.098 15.1413 3.956662 31.677731 -2.458615
2012-06-14 05:20:43 51°18.078 2°52.094 15.1414 3.955211 31.667457 -2.458615
2012-06-14 05:20:48 51°18.094 2°52.09 15.1489 3.954901 31.665351 -2.458615
2012-06-14 05:20:53 51°18.109 2°52.086 15.1501 3.954901 31.666018 -2.458615
2012-06-14 05:20:58 51°18.125 2°52.082 15.149 3.955004 31.66961 -2.458615
2012-06-14 05:21:03 51°18.14 2°52.078 15.1478 3.954175 31.663548 -2.458615
2012-06-14 05:21:07 51°18.153 2°52.075 15.1539 3.954175 31.663548 -2.458615
2012-06-14 05:21:13 51°18.171 2°52.07 15.1514 3.954901 31.670686 -2.458615
2012-06-14 05:21:18 51°18.187 2°52.066 15.1487 3.956041 31.681524 -2.458615
2012-06-14 05:21:23 51°18.203 2°52.063 15.144 3.95687 31.687586 -2.458615
2012-06-14 05:21:28 51°18.218 2°52.059 15.1411 3.956973 31.687176 -2.458615
2012-06-14 05:21:33 51°18.233 2°52.055 15.138 3.958217 31.696936 -2.458615
2012-06-14 05:21:38 51°18.249 2°52.05 15.1316 3.958217 31.696936 -2.458615
2012-06-14 05:21:43 51°18.264 2°52.047 15.119 3.962258 31.73233 -2.458615
2012-06-14 05:21:48 51°18.28 2°52.043 15.1211 3.964227 31.749231 -2.458615
2012-06-14 05:21:53 51°18.295 2°52.039 15.1083 3.963916 31.746457 -2.458615
2012-06-14 05:21:58 51°18.311 2°52.035 15.1047 3.964227 31.750569 -2.458615
2012-06-14 05:22:03 51°18.327 2°52.031 15.0998 3.963812 31.748207 -2.458615
2012-06-14 05:22:08 51°18.342 2°52.027 15.0918 3.963812 31.748207 -2.458615
2012-06-14 05:22:13 51°18.358 2°52.023 15.0857 3.962776 31.742301 -2.458615
2012-06-14 05:22:18 51°18.373 2°52.019 15.0864 3.959875 31.721751 -2.458615
2012-06-14 05:22:23 51°18.389 2°52.014 15.0754 3.956766 31.700016 -2.458615
2012-06-14 05:22:28 51°18.405 2°52.01 15.0818 3.951067 31.654483 -2.458615
2012-06-14 05:22:33 51°18.42 2°52.006 15.0799 3.94858 31.638288 -2.458615
2012-06-14 05:22:38 51°18.436 2°52.003 15.0854 3.94858 31.638288 -2.458615
2012-06-14 05:22:43 51°18.452 2°51.999 15.0835 3.946093 31.621421 -2.458615
2012-06-14 05:22:48 51°18.467 2°51.995 15.0853 3.945161 31.616429 -2.458615
2012-06-14 05:22:53 51°18.483 2°51.992 15.0871 3.94112 31.58568 -2.458615
2012-06-14 05:22:58 51°18.499 2°51.988 15.0902 3.938218 31.565104 -2.458615
2012-06-14 05:23:03 51°18.515 2°51.984 15.093 3.934902 31.538827 -2.458615
2012-06-14 05:23:08 51°18.53 2°51.98 15.0954 3.934902 31.538827 -2.458615
2012-06-14 05:23:13 51°18.547 2°51.977 15.0913 3.933037 31.522175 -2.458615
2012-06-14 05:23:18 51°18.563 2°51.973 15.0873 3.931483 31.508964 -2.458615
2012-06-14 05:23:23 51°18.578 2°51.969 15.0891 3.930758 31.502489 -2.458615
2012-06-14 05:23:27 51°18.591 2°51.964 15.0876 3.930861 31.503414 -2.458615
2012-06-14 05:23:33 51°18.61 2°51.958 15.0987 3.931069 31.50327 -2.458615
2012-06-14 05:23:38 51°18.625 2°51.952 15.0953 3.931069 31.50327 -2.458615
2012-06-14 05:23:43 51°18.64 2°51.945 15.0984 3.931172 31.502866 -2.458615
2012-06-14 05:23:48 51°18.656 2°51.94 15.1064 3.930447 31.495727 -2.458615
2012-06-14 05:23:53 51°18.672 2°51.934 15.0977 3.928789 31.480929 -2.458615
2012-06-14 05:23:58 51°18.687 2°51.927 15.0976 3.93024 31.495206 -2.458615
2012-06-14 05:24:03 51°18.703 2°51.922 15.0962 3.92682 31.464686 -2.458615
2012-06-14 05:24:07 51°18.715 2°51.916 15.0996 3.92682 31.464686 -2.458615
2012-06-14 05:24:13 51°18.734 2°51.908 15.1035 3.926509 31.459921 -2.458615
2012-06-14 05:24:18 51°18.749 2°51.901 15.106 3.919049 31.392029 -2.458615
2012-06-14 05:24:23 51°18.765 2°51.894 15.1072 3.931068 31.497954 -2.458615
2012-06-14 05:24:28 51°18.78 2°51.888 15.1114 3.937907 31.558334 -2.458615
2012-06-14 05:24:33 51°18.795 2°51.881 15.1071 3.937182 31.551859 -2.458615
2012-06-14 05:24:38 51°18.811 2°51.876 15.1032 3.937182 31.551859 -2.458615
2012-06-14 05:24:43 51°18.827 2°51.87 15.1006 3.937182 31.552524 -2.458615
2012-06-14 05:24:48 51°18.842 2°51.864 15.1068 3.93656 31.545643 -2.458615
2012-06-14 05:24:53 51°18.858 2°51.859 15.104 3.936975 31.548013 -2.458615
2012-06-14 05:24:58 51°18.874 2°51.855 15.1086 3.937493 31.550641 -2.458615
2012-06-14 05:25:03 51°18.889 2°51.851 15.1121 3.938114 31.55486 -2.458615
2012-06-14 05:25:08 51°18.905 2°51.848 15.1148 3.938114 31.55486 -2.458615
2012-06-14 05:25:13 51°18.921 2°51.843 15.1152 3.942985 31.599001 -2.458615
2012-06-14 05:25:18 51°18.937 2°51.84 15.116 3.943814 31.607069 -2.458615
2012-06-14 05:25:23 51°18.953 2°51.836 15.1178 3.944125 31.609844 -2.458615
2012-06-14 05:25:28 51°18.969 2°51.833 15.1078 3.94485 31.61632 -2.458615
2012-06-14 05:25:33 51°18.984 2°51.83 15.1057 3.945679 31.623055 -2.458615
2012-06-14 05:25:38 51°19 2°51.827 15.1083 3.945679 31.623055 -2.458615
2012-06-14 05:25:43 51°19.016 2°51.825 15.0959 3.946819 31.630565 -2.458615
2012-06-14 05:25:47 51°19.029 2°51.823 15.0928 3.94858 31.644292 -2.458615
2012-06-14 05:25:53 51°19.048 2°51.821 15.0878 3.949513 31.651284 -2.458615
2012-06-14 05:25:58 51°19.064 2°51.819 15.0755 3.951378 31.66727 -2.458615
2012-06-14 05:26:03 51°19.08 2°51.817 15.0677 3.952414 31.677859 -2.458615
2012-06-14 05:26:08 51°19.096 2°51.816 15.067 3.952414 31.677859 -2.458615
2012-06-14 05:26:13 51°19.112 2°51.814 15.065 3.952829 31.684232 -2.458615
2012-06-14 05:26:18 51°19.127 2°51.813 15.0594 3.953761 31.695903 -2.458615
2012-06-14 05:26:23 51°19.144 2°51.812 15.058 3.953554 31.697395 -2.458615
2012-06-14 05:26:28 51°19.16 2°51.811 15.051 3.953865 31.704184 -2.458615
2012-06-14 05:26:33 51°19.176 2°51.81 15.0451 3.952725 31.700689 -2.458615
2012-06-14 05:26:38 51°19.192 2°51.808 15.0461 3.952725 31.700689 -2.458615
2012-06-14 05:26:43 51°19.207 2°51.806 15.044 3.952415 31.703932 -2.458615
2012-06-14 05:26:47 51°19.221 2°51.804 15.0349 3.951793 31.703059 -2.458615
2012-06-14 05:26:53 51°19.24 2°51.802 15.0306 3.951068 31.700591 -2.458615
2012-06-14 05:26:58 51°19.256 2°51.8 15.0242 3.951379 31.706717 -2.458615
2012-06-14 05:27:03 51°19.271 2°51.797 15.0196 3.950964 31.707029 -2.458615
2012-06-14 05:27:08 51°19.287 2°51.795 15.0204 3.950964 31.707029 -2.458615
2012-06-14 05:27:13 51°19.304 2°51.794 15.0123 3.950964 31.713057 -2.458615
2012-06-14 05:27:18 51°19.32 2°51.794 15.0022 3.950861 31.71414 -2.458615
2012-06-14 05:27:23 51°19.336 2°51.793 14.9987 3.950446 31.713782 -2.458615
2012-06-14 05:27:28 51°19.352 2°51.792 14.9949 3.950239 31.716619 -2.458615
2012-06-14 05:27:33 51°19.368 2°51.792 14.9955 3.949928 31.719201 -2.458615
2012-06-14 05:27:38 51°19.385 2°51.791 14.9957 3.949928 31.719201 -2.458615
2012-06-14 05:27:43 51°19.4 2°51.79 14.9955 3.949307 31.71766 -2.458615
2012-06-14 05:27:48 51°19.416 2°51.788 14.9929 3.947234 31.702468 -2.458615
2012-06-14 05:27:53 51°19.432 2°51.787 14.9902 3.947856 31.714065 -2.458615
2012-06-14 05:27:58 51°19.449 2°51.787 14.9926 3.947752 31.717833 -2.458615
2012-06-14 05:28:03 51°19.465 2°51.785 14.9883 3.947753 31.721858 -2.458615
2012-06-14 05:28:07 51°19.477 2°51.784 14.9883 3.947753 31.721858 -2.458615
2012-06-14 05:28:13 51°19.497 2°51.783 14.9887 3.948685 31.732893 -2.458615
2012-06-14 05:28:18 51°19.513 2°51.781 14.9809 3.9491 31.73929 -2.458615
2012-06-14 05:28:23 51°19.529 2°51.779 14.9825 3.950136 31.749913 -2.458615
2012-06-14 05:28:27 51°19.541 2°51.776 14.9839 3.951379 31.762393 -2.458615
2012-06-14 05:28:33 51°19.561 2°51.772 14.9749 3.95283 31.776731 -2.458615
2012-06-14 05:28:38 51°19.577 2°51.769 14.9756 3.95283 31.776731 -2.458615
2012-06-14 05:28:43 51°19.593 2°51.766 14.9683 3.954281 31.791744 -2.458615
2012-06-14 05:28:48 51°19.609 2°51.762 14.9611 3.954695 31.79613 -2.458615
2012-06-14 05:28:53 51°19.625 2°51.759 14.9543 3.955732 31.808106 -2.458615
2012-06-14 05:28:58 51°19.64 2°51.756 14.9445 3.956561 31.817554 -2.458615
2012-06-14 05:29:03 51°19.656 2°51.753 14.9333 3.957183 31.824473 -2.458615
2012-06-14 05:29:08 51°19.673 2°51.75 14.9285 3.957183 31.824473 -2.458615
2012-06-14 05:29:13 51°19.689 2°51.747 14.9041 3.958322 31.836709 -2.458615
2012-06-14 05:29:18 51°19.705 2°51.745 14.8981 3.957804 31.834761 -2.458615
2012-06-14 05:29:23 51°19.721 2°51.743 14.8784 3.957804 31.83948 -2.458615
2012-06-14 05:29:28 51°19.737 2°51.739 14.8726 3.95967 31.861599 -2.458615
2012-06-14 05:29:33 51°19.753 2°51.735 14.8704 3.958737 31.85796 -2.458615
2012-06-14 05:29:38 51°19.769 2°51.731 14.8789 3.958737 31.85796 -2.458615
2012-06-14 05:29:43 51°19.785 2°51.726 14.8708 3.957598 31.859212 -2.458615
2012-06-14 05:29:48 51°19.8 2°51.723 14.8681 3.956976 31.861738 -2.458615
2012-06-14 05:29:53 51°19.816 2°51.719 14.8766 3.955422 31.858598 -2.458615
2012-06-14 05:29:58 51°19.832 2°51.714 14.8719 3.954075 31.856642 -2.458615
2012-06-14 05:30:03 51°19.848 2°51.709 14.8777 3.952728 31.856038 -2.458615
2012-06-14 05:30:08 51°19.864 2°51.705 14.887 3.952728 31.856038 -2.458615
2012-06-14 05:30:13 51°19.88 2°51.7 14.8878 3.952935 31.863309 -2.458615
2012-06-14 05:30:18 51°19.896 2°51.696 14.8889 3.951899 31.857383 -2.458615
2012-06-14 05:30:23 51°19.912 2°51.692 14.8924 3.952106 31.861951 -2.458615
2012-06-14 05:30:27 51°19.924 2°51.688 14.8948 3.952521 31.867704 -2.458615
2012-06-14 05:30:33 51°19.944 2°51.682 14.9054 3.95335 31.875152 -2.458615
2012-06-14 05:30:38 51°19.959 2°51.678 14.9002 3.95335 31.875152 -2.458615
2012-06-14 05:30:43 51°19.975 2°51.676 14.9029 3.954179 31.881246 -2.458615
2012-06-14 05:30:47 51°19.988 2°51.674 14.9014 3.955629 31.892248 -2.458615
2012-06-14 05:30:53 51°20.007 2°51.671 14.904 3.957598 31.907905 -2.458615
2012-06-14 05:30:58 51°20.023 2°51.67 14.9023 3.959153 31.919837 -2.458615
2012-06-14 05:31:03 51°20.039 2°51.669 14.898 3.961225 31.935068 -2.458615
2012-06-14 05:31:08 51°20.055 2°51.669 14.8943 3.961225 31.935068 -2.458615
2012-06-14 05:31:13 51°20.07 2°51.669 14.8898 3.962676 31.944712 -2.458615
2012-06-14 05:31:18 51°20.086 2°51.668 14.8806 3.964334 31.956894 -2.458615
2012-06-14 05:31:23 51°20.102 2°51.667 14.8836 3.966717 31.977627 -2.458615
2012-06-14 05:31:28 51°20.118 2°51.666 14.8761 3.969515 32.002086 -2.458615
2012-06-14 05:31:33 51°20.134 2°51.665 14.8694 3.970551 32.011397 -2.458615
2012-06-14 05:31:38 51°20.15 2°51.664 14.8646 3.970551 32.011397 -2.458615
2012-06-14 05:31:43 51°20.166 2°51.663 14.8559 3.97138 32.019526 -2.458615
2012-06-14 05:31:48 51°20.181 2°51.662 14.8447 3.972935 32.036214 -2.458615
2012-06-14 05:31:53 51°20.197 2°51.661 14.8408 3.973349 32.04402 -2.458615
2012-06-14 05:31:58 51°20.213 2°51.659 14.8416 3.973971 32.05233 -2.458615
2012-06-14 05:32:03 51°20.228 2°51.658 14.8279 3.974075 32.057345 -2.458615
2012-06-14 05:32:08 51°20.244 2°51.657 14.8237 3.974075 32.057345 -2.458615
2012-06-14 05:32:13 51°20.259 2°51.657 14.8146 3.975319 32.072612 -2.458615
2012-06-14 05:32:18 51°20.275 2°51.656 14.8058 3.975837 32.084085 -2.458615
2012-06-14 05:32:23 51°20.29 2°51.655 14.8008 3.976459 32.097178 -2.458615
2012-06-14 05:32:27 51°20.303 2°51.655 14.7926 3.976562 32.103567 -2.458615
2012-06-14 05:32:33 51°20.322 2°51.654 14.7905 3.976252 32.106911 -2.458615
2012-06-14 05:32:38 51°20.337 2°51.654 14.7991 3.976252 32.106911 -2.458615
2012-06-14 05:32:43 51°20.353 2°51.655 14.803 3.975837 32.107958 -2.458615
2012-06-14 05:32:48 51°20.369 2°51.655 14.8164 3.975215 32.108505 -2.458615
2012-06-14 05:32:53 51°20.385 2°51.655 14.8285 3.974387 32.107187 -2.458615
2012-06-14 05:32:58 51°20.4 2°51.656 14.8336 3.972936 32.100269 -2.458615
2012-06-14 05:33:03 51°20.416 2°51.656 14.8405 3.973143 32.110333 -2.458615
2012-06-14 05:33:08 51°20.432 2°51.657 14.8357 3.973143 32.110333 -2.458615
2012-06-14 05:33:13 51°20.447 2°51.658 14.8271 3.972729 32.110016 -2.458615
2012-06-14 05:33:18 51°20.463 2°51.659 14.8203 3.972418 32.107216 -2.458615
2012-06-14 05:33:23 51°20.479 2°51.66 14.8212 3.972729 32.1066 -2.458615
2012-06-14 05:33:28 51°20.494 2°51.66 14.8182 3.974076 32.113951 -2.458615
2012-06-14 05:33:33 51°20.51 2°51.661 14.8192 3.975837 32.122984 -2.458615
2012-06-14 05:33:38 51°20.526 2°51.661 14.8191 3.975837 32.122984 -2.458615
2012-06-14 05:33:43 51°20.541 2°51.663 14.8178 3.977081 32.130082 -2.458615
2012-06-14 05:33:48 51°20.557 2°51.663 14.8165 3.977703 32.135681 -2.458615
2012-06-14 05:33:53 51°20.573 2°51.664 14.8185 3.978739 32.14638 -2.458615
2012-06-14 05:33:58 51°20.589 2°51.663 14.8152 3.978428 32.145632 -2.458615
2012-06-14 05:34:03 51°20.604 2°51.663 14.8199 3.97905 32.153283 -2.458615
2012-06-14 05:34:08 51°20.62 2°51.664 14.8226 3.97905 32.153283 -2.458615
2012-06-14 05:34:13 51°20.636 2°51.664 14.8238 3.979775 32.161186 -2.458615
2012-06-14 05:34:18 51°20.651 2°51.665 14.8271 3.980812 32.171205 -2.458615
2012-06-14 05:34:23 51°20.667 2°51.665 14.8264 3.98133 32.176557 -2.458615
2012-06-14 05:34:27 51°20.679 2°51.665 14.8231 3.980915 32.172138 -2.458615
2012-06-14 05:34:33 51°20.699 2°51.665 14.8192 3.980501 32.168404 -2.458615
2012-06-14 05:34:38 51°20.715 2°51.665 14.8218 3.980501 32.168404 -2.458615
2012-06-14 05:34:43 51°20.73 2°51.665 14.8199 3.980086 32.163986 -2.458615
2012-06-14 05:34:47 51°20.742 2°51.664 14.824 3.979154 32.154901 -2.458615
2012-06-14 05:34:53 51°20.762 2°51.663 14.8192 3.978221 32.145133 -2.458615
2012-06-14 05:34:58 51°20.777 2°51.661 14.821 3.977806 32.141399 -2.458615
2012-06-14 05:35:03 51°20.793 2°51.66 14.8182 3.977185 32.135799 -2.458615
2012-06-14 05:35:08 51°20.809 2°51.659 14.8295 3.977185 32.135799 -2.458615
2012-06-14 05:35:13 51°20.825 2°51.657 14.8369 3.976252 32.128083 -2.458615
2012-06-14 05:35:18 51°20.841 2°51.654 14.8457 3.976045 32.126217 -2.458615
2012-06-14 05:35:23 51°20.856 2°51.653 14.858 3.975319 32.119684 -2.458615
2012-06-14 05:35:27 51°20.869 2°51.651 14.8685 3.974801 32.116384 -2.458615
2012-06-14 05:35:33 51°20.888 2°51.65 14.8807 3.973868 32.107985 -2.458615
2012-06-14 05:35:38 51°20.904 2°51.648 14.8977 3.973868 32.107985 -2.458615
2012-06-14 05:35:43 51°20.92 2°51.647 14.9094 3.97335 32.102636 -2.458615
2012-06-14 05:35:48 51°20.936 2°51.646 14.9251 3.972936 32.095489 -2.458615
2012-06-14 05:35:53 51°20.951 2°51.643 14.938 3.972936 32.090029 -2.458615
2012-06-14 05:35:58 51°20.967 2°51.642 14.9509 3.973765 32.089985 -2.458615
2012-06-14 05:36:03 51°20.983 2°51.64 14.9647 3.974283 32.086463 -2.458615
2012-06-14 05:36:08 51°20.999 2°51.638 14.9745 3.974283 32.086463 -2.458615
2012-06-14 05:36:13 51°21.015 2°51.636 14.9852 3.975526 32.087423 -2.458615
2012-06-14 05:36:18 51°21.031 2°51.635 14.9942 3.976873 32.089316 -2.458615
2012-06-14 05:36:23 51°21.047 2°51.634 15.001 3.978738 32.093142 -2.458615
2012-06-14 05:36:28 51°21.063 2°51.633 15.0096 3.980603 32.096967 -2.458615
2012-06-14 05:36:33 51°21.079 2°51.632 15.0145 3.982572 32.103084 -2.458615
2012-06-14 05:36:38 51°21.095 2°51.631 15.0222 3.982572 32.103084 -2.458615
2012-06-14 05:36:43 51°21.111 2°51.63 15.0286 3.984748 32.112422 -2.458615
2012-06-14 05:36:47 51°21.124 2°51.629 15.0317 3.987131 32.120213 -2.458615
2012-06-14 05:36:53 51°21.143 2°51.628 15.0362 3.989515 32.132085 -2.458615
2012-06-14 05:36:58 51°21.159 2°51.627 15.0432 3.992002 32.144882 -2.458615
2012-06-14 05:37:03 51°21.175 2°51.627 15.0477 3.992934 32.145766 -2.458615
2012-06-14 05:37:08 51°21.19 2°51.627 15.0535 3.992934 32.145766 -2.458615
2012-06-14 05:37:13 51°21.207 2°51.628 15.0565 3.994903 32.155268 -2.458615
2012-06-14 05:37:18 51°21.222 2°51.628 15.0572 3.997287 32.169166 -2.458615
2012-06-14 05:37:23 51°21.239 2°51.629 15.0521 4.00081 32.194649 -2.458615
2012-06-14 05:37:28 51°21.255 2°51.63 15.0508 4.002364 32.203145 -2.458615
2012-06-14 05:37:33 51°21.271 2°51.632 15.0483 4.003919 32.210957 -2.458615
2012-06-14 05:37:38 51°21.287 2°51.632 15.0457 4.003919 32.210957 -2.458615
2012-06-14 05:37:43 51°21.303 2°51.634 15.0408 4.00537 32.21852 -2.458615
2012-06-14 05:37:48 51°21.319 2°51.634 15.0349 4.006613 32.224904 -2.458615
2012-06-14 05:37:53 51°21.335 2°51.635 15.033 4.007857 32.232649 -2.458615
2012-06-14 05:37:58 51°21.352 2°51.635 15.0301 4.008582 32.238472 -2.458615
2012-06-14 05:38:03 51°21.368 2°51.635 15.0302 4.008789 32.240331 -2.458615
2012-06-14 05:38:08 51°21.384 2°51.635 15.0255 4.008789 32.240331 -2.458615
2012-06-14 05:38:13 51°21.4 2°51.635 15.0282 4.008893 32.241941 -2.458615
2012-06-14 05:38:18 51°21.416 2°51.634 15.0237 4.008893 32.243986 -2.458615
2012-06-14 05:38:23 51°21.433 2°51.634 15.0244 4.008375 32.242066 -2.458615
2012-06-14 05:38:28 51°21.45 2°51.633 15.022 4.008375 32.244792 -2.458615
2012-06-14 05:38:33 51°21.466 2°51.633 15.0186 4.008271 32.24659 -2.458615
2012-06-14 05:38:38 51°21.482 2°51.632 15.02 4.008271 32.24659 -2.458615
2012-06-14 05:38:43 51°21.498 2°51.63 15.02 4.007753 32.24467 -2.458615
2012-06-14 05:38:48 51°21.515 2°51.629 15.02 4.007339 32.242315 -2.458615
2012-06-14 05:38:53 51°21.531 2°51.627 15.0188 4.006717 32.238101 -2.458615
2012-06-14 05:38:58 51°21.547 2°51.626 15.0163 4.006199 32.234816 -2.458615
2012-06-14 05:39:03 51°21.564 2°51.623 15.012 4.005681 32.231531 -2.458615
2012-06-14 05:39:07 51°21.577 2°51.622 15.0122 4.005681 32.231531 -2.458615
2012-06-14 05:39:13 51°21.596 2°51.62 15.0052 4.005266 32.229175 -2.458615
2012-06-14 05:39:18 51°21.613 2°51.618 15.0065 4.005059 32.227998 -2.458615
2012-06-14 05:39:23 51°21.629 2°51.616 15.0031 4.00537 32.231469 -2.458615
2012-06-14 05:39:27 51°21.642 2°51.614 15.0061 4.005163 32.229609 -2.458615
2012-06-14 05:39:33 51°21.662 2°51.612 15.0045 4.004852 32.228865 -2.458615
2012-06-14 05:39:38 51°21.678 2°51.611 14.9945 4.004852 32.228865 -2.458615
2012-06-14 05:39:43 51°21.694 2°51.61 14.9958 4.004541 32.228121 -2.458615
2012-06-14 05:39:48 51°21.711 2°51.609 15.0005 4.003815 32.222976 -2.458615
2012-06-14 05:39:53 51°21.727 2°51.608 15.0046 4.003608 32.223843 -2.458615
2012-06-14 05:39:58 51°21.744 2°51.607 15.0112 4.003712 32.226137 -2.458615
2012-06-14 05:40:03 51°21.76 2°51.606 15.0164 4.003712 32.226819 -2.458615
2012-06-14 05:40:08 51°21.776 2°51.606 15.0204 4.003712 32.226819 -2.458615
2012-06-14 05:40:13 51°21.793 2°51.605 15.0272 4.004126 32.233267 -2.458615
2012-06-14 05:40:18 51°21.81 2°51.606 15.0269 4.004541 32.238352 -2.458615
2012-06-14 05:40:23 51°21.827 2°51.607 15.0289 4.005163 32.244616 -2.458615
2012-06-14 05:40:28 51°21.843 2°51.608 15.0305 4.005474 32.246724 -2.458615
2012-06-14 05:40:33 51°21.859 2°51.61 15.0306 4.005992 32.248645 -2.458615
2012-06-14 05:40:38 51°21.876 2°51.611 15.0338 4.005992 32.248645 -2.458615
2012-06-14 05:40:43 51°21.892 2°51.614 15.0292 4.006717 32.250378 -2.458615
2012-06-14 05:40:48 51°21.908 2°51.615 15.028 4.007961 32.258126 -2.458615
2012-06-14 05:40:53 51°21.924 2°51.618 15.0212 4.008479 32.259364 -2.458615
2012-06-14 05:40:58 51°21.941 2°51.618 15.0156 4.00993 32.269652 -2.458615
2012-06-14 05:41:03 51°21.958 2°51.62 15.0129 4.01107 32.27715 -2.458615
2012-06-14 05:41:08 51°21.974 2°51.621 15.0055 4.01107 32.27715 -2.458615
2012-06-14 05:41:13 51°21.99 2°51.622 15.0081 4.011588 32.280434 -2.458615
2012-06-14 05:41:18 51°22.007 2°51.624 15.0119 4.011484 32.278821 -2.458615
2012-06-14 05:41:23 51°22.023 2°51.625 15.0148 4.012106 32.2844 -2.458615
2012-06-14 05:41:27 51°22.036 2°51.626 15.0076 4.011692 32.283412 -2.458615
2012-06-14 05:41:33 51°22.056 2°51.627 14.9985 4.011899 32.288686 -2.458615
2012-06-14 05:41:38 51°22.073 2°51.628 14.9911 4.011899 32.288686 -2.458615
2012-06-14 05:41:43 51°22.089 2°51.629 14.9834 4.011795 32.291172 -2.458615
2012-06-14 05:41:48 51°22.106 2°51.63 14.9797 4.012624 32.302029 -2.458615
2012-06-14 05:41:53 51°22.122 2°51.63 14.9872 4.013972 32.314123 -2.458615
2012-06-14 05:41:58 51°22.139 2°51.629 14.9865 4.015112 32.324356 -2.458615
2012-06-14 05:42:03 51°22.155 2°51.628 14.9926 4.015112 32.326408 -2.458615
2012-06-14 05:42:07 51°22.168 2°51.627 15 4.015112 32.326408 -2.458615
2012-06-14 05:42:13 51°22.188 2°51.625 15.0084 4.014179 32.321454 -2.458615
2012-06-14 05:42:18 51°22.204 2°51.624 15.0145 4.01221 32.309931 -2.458615
2012-06-14 05:42:23 51°22.22 2°51.621 15.0221 4.010759 32.30169 -2.458615
2012-06-14 05:42:28 51°22.237 2°51.619 15.0259 4.008997 32.288604 -2.458615
2012-06-14 05:42:33 51°22.253 2°51.616 15.0267 4.00765 32.276506 -2.458615
2012-06-14 05:42:38 51°22.269 2°51.613 15.0242 4.00765 32.276506 -2.458615
2012-06-14 05:42:43 51°22.286 2°51.611 15.0251 4.006821 32.267012 -2.458615
2012-06-14 05:42:48 51°22.302 2°51.608 15.0207 4.006614 32.261736 -2.458615
2012-06-14 05:42:53 51°22.318 2°51.605 15.0228 4.007443 32.264398 -2.458615
2012-06-14 05:42:58 51°22.335 2°51.602 15.0242 4.007546 32.259866 -2.458615
2012-06-14 05:43:03 51°22.351 2°51.601 15.0213 4.008997 32.268109 -2.458615
2012-06-14 05:43:08 51°22.367 2°51.599 15.0145 4.008997 32.268109 -2.458615
2012-06-14 05:43:13 51°22.384 2°51.598 15.0091 4.010137 32.274925 -2.458615
2012-06-14 05:43:18 51°22.4 2°51.597 15.0075 4.011899 32.289369 -2.458615
2012-06-14 05:43:23 51°22.416 2°51.597 14.9958 4.013246 32.30146 -2.458615
2012-06-14 05:43:27 51°22.429 2°51.597 15.0009 4.013661 32.304497 -2.458615
2012-06-14 05:43:33 51°22.449 2°51.597 14.986 4.014386 32.310324 -2.458615
2012-06-14 05:43:38 51°22.465 2°51.598 14.9848 4.014386 32.310324 -2.458615
2012-06-14 05:43:43 51°22.481 2°51.598 14.9845 4.01563 32.322169 -2.458615
2012-06-14 05:43:48 51°22.497 2°51.598 14.971 4.016044 32.328625 -2.458615
2012-06-14 05:43:53 51°22.513 2°51.597 14.968 4.015941 32.33043 -2.458615
2012-06-14 05:43:58 51°22.53 2°51.597 14.9625 4.014904 32.325915 -2.458615
2012-06-14 05:44:03 51°22.547 2°51.597 14.9608 4.014905 32.329336 -2.458615
2012-06-14 05:44:08 51°22.563 2°51.596 14.9595 4.014905 32.329336 -2.458615
2012-06-14 05:44:13 51°22.579 2°51.594 14.9624 4.014179 32.326927 -2.458615
2012-06-14 05:44:18 51°22.595 2°51.592 14.9648 4.013454 32.325203 -2.458615
2012-06-14 05:44:23 51°22.611 2°51.59 14.9638 4.012936 32.326024 -2.458615
2012-06-14 05:44:28 51°22.628 2°51.588 14.9683 4.011899 32.322192 -2.458615
2012-06-14 05:44:33 51°22.644 2°51.585 14.965 4.010967 32.319289 -2.458615
2012-06-14 05:44:38 51°22.66 2°51.583 14.9676 4.010967 32.319289 -2.458615
2012-06-14 05:44:43 51°22.676 2°51.58 14.9647 4.010552 32.318303 -2.458615
2012-06-14 05:44:48 51°22.692 2°51.578 14.9642 4.011381 32.328492 -2.458615
2012-06-14 05:44:53 51°22.708 2°51.576 14.9703 4.013143 32.344324 -2.458615
2012-06-14 05:44:58 51°22.724 2°51.573 14.9737 4.014801 32.359226 -2.458615
2012-06-14 05:45:03 51°22.74 2°51.572 14.9748 4.016252 32.371581 -2.458615
2012-06-14 05:45:08 51°22.756 2°51.569 14.9808 4.016252 32.371581 -2.458615
2012-06-14 05:45:13 51°22.772 2°51.567 14.9763 4.0176 32.38369 -2.458615
2012-06-14 05:45:18 51°22.789 2°51.566 14.9766 4.01874 32.393936 -2.458615
2012-06-14 05:45:23 51°22.805 2°51.564 14.9821 4.018636 32.393005 -2.458615
2012-06-14 05:45:27 51°22.818 2°51.562 14.9849 4.01905 32.396045 -2.458615
2012-06-14 05:45:33 51°22.837 2°51.56 14.9902 4.019154 32.394917 -2.458615
2012-06-14 05:45:38 51°22.853 2°51.559 14.9951 4.019154 32.394917 -2.458615
2012-06-14 05:45:43 51°22.869 2°51.558 14.9953 4.019154 32.392858 -2.458615
2012-06-14 05:45:47 51°22.883 2°51.558 14.9981 4.019258 32.392417 -2.458615
2012-06-14 05:45:53 51°22.902 2°51.557 14.9964 4.019361 32.391976 -2.458615
2012-06-14 05:45:58 51°22.918 2°51.557 14.9956 4.018947 32.386879 -2.458615
2012-06-14 05:46:03 51°22.934 2°51.557 14.9953 4.018843 32.382518 -2.458615
2012-06-14 05:46:08 51°22.95 2°51.557 14.9966 4.018843 32.382518 -2.458615
2012-06-14 05:46:13 51°22.966 2°51.557 14.9946 4.019258 32.3835 -2.458615
2012-06-14 05:46:18 51°22.983 2°51.558 14.9958 4.019465 32.381934 -2.458615